Wetterdaten: Mittwoch, 19.10.2016
Datum Zeit Temp. Aussen Temp. o. S. +5cm Feuchte Auss BlattFeu 1 Luftdruck Regen Sonnenschein Regendauer Solar Windben Empfang
19.10.2016 00:00 8,9 C 8,3 C 7,2 C 96 % 15 lf 1016,7 hPa 0,0 l/m 0 min 0 min 0 W/m 10,5 km/h (2 Bft) 93,62 %
19.10.2016 00:02 8,9 C 8,3 C 7,2 C 96 % 15 lf 1016,6 hPa 0,0 l/m 0 min 0 min 0 W/m 14,6 km/h (3 Bft) 95,45 %
19.10.2016 00:05 8,9 C 8,3 C 7,2 C 96 % 15 lf 1016,6 hPa 0,0 l/m 0 min 0 min 0 W/m 12,6 km/h (3 Bft) 97,18 %
19.10.2016 00:06 8,9 C 8,3 C 7,2 C 96 % 15 lf 1016,6 hPa 0,0 l/m 0 min 0 min 0 W/m 12,6 km/h (3 Bft) 95,83 %
19.10.2016 00:08 8,8 C 8,3 C 7,2 C 96 % 15 lf 1016,6 hPa 0,0 l/m 0 min 0 min 0 W/m 18,8 km/h (3 Bft) 95,74 %
19.10.2016 00:10 8,8 C 8,3 C 7,2 C 96 % 15 lf 1016,5 hPa 0,0 l/m 0 min 0 min 0 W/m 20,9 km/h (4 Bft) 97,83 %
19.10.2016 00:12 8,8 C 8,3 C 7,2 C 96 % 15 lf 1016,5 hPa 0,0 l/m 0 min 0 min 0 W/m 14,6 km/h (3 Bft) 97,87 %
19.10.2016 00:14 8,8 C 8,3 C 7,2 C 96 % 15 lf 1016,5 hPa 0,0 l/m 0 min 0 min 0 W/m 14,6 km/h (3 Bft) 97,87 %
19.10.2016 00:16 8,8 C 8,3 C 7,2 C 96 % 15 lf 1016,5 hPa 0,0 l/m 0 min 0 min 0 W/m 14,6 km/h (3 Bft) 93,62 %
19.10.2016 00:18 8,8 C 8,3 C 7,2 C 96 % 15 lf 1016,4 hPa 0,0 l/m 0 min 0 min 0 W/m 14,6 km/h (3 Bft) 97,87 %
19.10.2016 00:20 8,7 C 8,3 C 7,2 C 96 % 15 lf 1016,4 hPa 0,0 l/m 0 min 0 min 0 W/m 14,6 km/h (3 Bft) 100,00 %
19.10.2016 00:22 8,7 C 8,3 C 7,2 C 96 % 15 lf 1016,4 hPa 0,0 l/m 0 min 0 min 0 W/m 18,8 km/h (3 Bft) 100,00 %
19.10.2016 00:24 8,7 C 8,3 C 7,2 C 96 % 15 lf 1016,4 hPa 0,0 l/m 0 min 0 min 0 W/m 16,7 km/h (3 Bft) 97,87 %
19.10.2016 00:26 8,7 C 8,3 C 7,2 C 96 % 15 lf 1016,4 hPa 0,0 l/m 0 min 0 min 0 W/m 12,6 km/h (3 Bft) 95,74 %
19.10.2016 00:28 8,7 C 8,3 C 7,2 C 96 % 15 lf 1016,3 hPa 0,0 l/m 0 min 0 min 0 W/m 18,8 km/h (3 Bft) 95,74 %
19.10.2016 00:30 8,7 C 8,3 C 7,2 C 96 % 15 lf 1016,3 hPa 0,0 l/m 0 min 0 min 0 W/m 18,8 km/h (3 Bft) 97,87 %
19.10.2016 00:32 8,7 C 8,3 C 7,2 C 96 % 15 lf 1016,3 hPa 0,0 l/m 0 min 0 min 0 W/m 18,8 km/h (3 Bft) 95,74 %
19.10.2016 00:34 8,7 C 8,3 C 7,2 C 96 % 15 lf 1016,3 hPa 0,0 l/m 0 min 0 min 0 W/m 16,7 km/h (3 Bft) 93,48 %
19.10.2016 00:36 8,7 C 8,3 C 7,2 C 96 % 15 lf 1016,2 hPa 0,0 l/m 0 min 0 min 0 W/m 16,7 km/h (3 Bft) 97,87 %
19.10.2016 00:38 8,7 C 8,3 C 7,2 C 96 % 15 lf 1016,2 hPa 0,0 l/m 0 min 0 min 0 W/m 20,9 km/h (4 Bft) 97,87 %
19.10.2016 00:40 8,6 C 8,3 C 7,2 C 96 % 15 lf 1016,3 hPa 0,0 l/m 0 min 0 min 0 W/m 18,8 km/h (3 Bft) 97,87 %
19.10.2016 00:42 8,6 C 8,3 C 7,2 C 96 % 15 lf 1016,2 hPa 0,0 l/m 0 min 0 min 0 W/m 18,8 km/h (3 Bft) 93,62 %
19.10.2016 00:44 8,6 C 8,3 C 7,2 C 96 % 15 lf 1016,2 hPa 0,0 l/m 0 min 0 min 0 W/m 12,6 km/h (3 Bft) 97,87 %
19.10.2016 00:46 8,6 C 8,3 C 7,2 C 96 % 15 lf 1016,2 hPa 0,0 l/m 0 min 0 min 0 W/m 14,6 km/h (3 Bft) 95,65 %
19.10.2016 00:48 8,6 C 8,3 C 7,2 C 96 % 15 lf 1016,2 hPa 0,0 l/m 0 min 0 min 0 W/m 14,6 km/h (3 Bft) 97,87 %
19.10.2016 00:50 8,6 C 8,3 C 7,2 C 96 % 15 lf 1016,2 hPa 0,0 l/m 0 min 0 min 0 W/m 14,6 km/h (3 Bft) 95,74 %
19.10.2016 00:52 8,5 C 8,3 C 7,2 C 96 % 15 lf 1016,3 hPa 0,0 l/m 0 min 0 min 0 W/m 16,7 km/h (3 Bft) 97,87 %
19.10.2016 00:54 8,5 C 8,3 C 7,2 C 96 % 15 lf 1016,2 hPa 0,0 l/m 0 min 0 min 0 W/m 14,6 km/h (3 Bft) 93,62 %
19.10.2016 00:56 8,4 C 8,3 C 7,2 C 96 % 15 lf 1016,2 hPa 0,0 l/m 0 min 0 min 0 W/m 18,8 km/h (3 Bft) 97,87 %
19.10.2016 00:58 8,4 C 8,3 C 7,2 C 96 % 15 lf 1016,1 hPa 0,0 l/m 0 min 0 min 0 W/m 14,6 km/h (3 Bft) 89,13 %
19.10.2016 01:00 8,4 C 7,8 C 7,2 C 96 % 15 lf 1016,1 hPa 0,0 l/m 0 min 0 min 0 W/m 16,7 km/h (3 Bft) 95,74 %
19.10.2016 01:02 8,4 C 7,8 C 7,2 C 96 % 15 lf 1016,1 hPa 0,0 l/m 0 min 0 min 0 W/m 25,1 km/h (4 Bft) 95,74 %
19.10.2016 01:04 8,4 C 7,8 C 7,2 C 96 % 15 lf 1016,0 hPa 0,0 l/m 0 min 0 min 0 W/m 20,9 km/h (4 Bft) 95,74 %
19.10.2016 01:06 8,4 C 7,8 C 7,2 C 96 % 15 lf 1015,9 hPa 0,0 l/m 0 min 0 min 0 W/m 10,5 km/h (2 Bft) 95,74 %
19.10.2016 01:08 8,4 C 7,8 C 7,2 C 96 % 15 lf 1015,9 hPa 0,0 l/m 0 min 0 min 0 W/m 14,6 km/h (3 Bft) 95,65 %
19.10.2016 01:10 8,4 C 7,8 C 7,2 C 96 % 15 lf 1016,0 hPa 0,0 l/m 0 min 0 min 0 W/m 16,7 km/h (3 Bft) 97,87 %
19.10.2016 01:12 8,3 C 7,8 C 7,2 C 96 % 15 lf 1015,9 hPa 0,0 l/m 0 min 0 min 0 W/m 12,6 km/h (3 Bft) 95,74 %
19.10.2016 01:14 8,3 C 7,8 C 7,2 C 96 % 15 lf 1015,9 hPa 0,0 l/m 0 min 0 min 0 W/m 18,8 km/h (3 Bft) 97,87 %
19.10.2016 01:16 8,3 C 7,8 C 7,2 C 96 % 15 lf 1015,9 hPa 0,0 l/m 0 min 0 min 0 W/m 10,5 km/h (2 Bft) 95,74 %
19.10.2016 01:18 8,3 C 7,8 C 7,2 C 96 % 15 lf 1015,8 hPa 0,0 l/m 0 min 0 min 0 W/m 16,7 km/h (3 Bft) 97,87 %
19.10.2016 01:20 8,3 C 7,8 C 7,2 C 96 % 15 lf 1015,8 hPa 0,0 l/m 0 min 0 min 0 W/m 12,6 km/h (3 Bft) 97,83 %
19.10.2016 01:22 8,3 C 7,8 C 7,2 C 96 % 15 lf 1015,7 hPa 0,0 l/m 0 min 0 min 0 W/m 23,0 km/h (4 Bft) 95,74 %
19.10.2016 01:24 8,3 C 7,8 C 7,2 C 96 % 15 lf 1015,7 hPa 0,0 l/m 0 min 0 min 0 W/m 12,6 km/h (3 Bft) 97,87 %
19.10.2016 01:26 8,3 C 7,8 C 7,2 C 96 % 15 lf 1015,8 hPa 0,0 l/m 0 min 0 min 0 W/m 10,5 km/h (2 Bft) 97,87 %
19.10.2016 01:28 8,3 C 7,8 C 7,2 C 96 % 15 lf 1015,7 hPa 0,0 l/m 0 min 0 min 0 W/m 14,6 km/h (3 Bft) 97,87 %
19.10.2016 01:30 8,3 C 7,8 C 7,2 C 96 % 15 lf 1015,7 hPa 0,0 l/m 0 min 0 min 0 W/m 14,6 km/h (3 Bft) 97,87 %
19.10.2016 01:32 8,3 C 7,8 C 7,2 C 96 % 15 lf 1015,6 hPa 0,0 l/m 0 min 0 min 0 W/m 16,7 km/h (3 Bft) 95,74 %
19.10.2016 01:34 8,2 C 7,8 C 7,2 C 96 % 15 lf 1015,6 hPa 0,0 l/m 0 min 0 min 0 W/m 16,7 km/h (3 Bft) 95,65 %
19.10.2016 01:36 8,2 C 7,8 C 7,2 C 96 % 15 lf 1015,5 hPa 0,0 l/m 0 min 0 min 0 W/m 10,5 km/h (2 Bft) 97,87 %
19.10.2016 01:38 8,2 C 7,8 C 7,2 C 96 % 15 lf 1015,4 hPa 0,0 l/m 0 min 0 min 0 W/m 18,8 km/h (3 Bft) 97,87 %
19.10.2016 01:40 8,2 C 7,8 C 7,2 C 96 % 15 lf 1015,4 hPa 0,0 l/m 0 min 0 min 0 W/m 16,7 km/h (3 Bft) 95,74 %
19.10.2016 01:42 8,2 C 7,8 C 6,7 C 96 % 15 lf 1015,4 hPa 0,0 l/m 0 min 0 min 0 W/m 14,6 km/h (3 Bft) 95,74 %
19.10.2016 01:44 8,2 C 7,8 C 6,7 C 96 % 15 lf 1015,4 hPa 0,0 l/m 0 min 0 min 0 W/m 20,9 km/h (4 Bft) 97,83 %
19.10.2016 01:46 8,2 C 7,8 C 6,7 C 96 % 15 lf 1015,5 hPa 0,0 l/m 0 min 0 min 0 W/m 16,7 km/h (3 Bft) 97,87 %
19.10.2016 01:48 8,2 C 7,8 C 6,7 C 96 % 15 lf 1015,5 hPa 0,0 l/m 0 min 0 min 0 W/m 16,7 km/h (3 Bft) 95,74 %
19.10.2016 01:50 8,2 C 7,8 C 6,7 C 96 % 15 lf 1015,4 hPa 0,0 l/m 0 min 0 min 0 W/m 14,6 km/h (3 Bft) 97,87 %
19.10.2016 01:52 8,2 C 7,8 C 6,7 C 96 % 15 lf 1015,4 hPa 0,0 l/m 0 min 0 min 0 W/m 12,6 km/h (3 Bft) 97,87 %
19.10.2016 01:54 8,2 C 7,8 C 7,2 C 96 % 14 lf 1015,5 hPa 0,0 l/m 0 min 0 min 0 W/m 14,6 km/h (3 Bft) 97,87 %
19.10.2016 01:56 8,2 C 7,8 C 7,2 C 96 % 13 lf 1015,4 hPa 0,0 l/m 0 min 0 min 0 W/m 16,7 km/h (3 Bft) 95,65 %
19.10.2016 01:58 8,2 C 7,8 C 7,2 C 96 % 12 lf 1015,5 hPa 0,0 l/m 0 min 0 min 0 W/m 18,8 km/h (3 Bft) 97,87 %
19.10.2016 02:00 8,2 C 7,8 C 7,2 C 96 % 9 lf 1015,3 hPa 0,0 l/m 0 min 0 min 0 W/m 16,7 km/h (3 Bft) 97,87 %
19.10.2016 02:02 8,2 C 7,8 C 7,2 C 96 % 7 lf 1015,4 hPa 0,0 l/m 0 min 0 min 0 W/m 14,6 km/h (3 Bft) 95,74 %
19.10.2016 02:04 8,2 C 8,3 C 7,2 C 96 % 5 lf 1015,2 hPa 0,0 l/m 0 min 0 min 0 W/m 14,6 km/h (3 Bft) 97,87 %
19.10.2016 02:06 8,2 C 8,3 C 7,2 C 96 % 3 lf 1015,3 hPa 0,0 l/m 0 min 0 min 0 W/m 16,7 km/h (3 Bft) 97,87 %
19.10.2016 02:08 8,2 C 8,3 C 7,2 C 96 % 4 lf 1015,2 hPa 0,0 l/m 0 min 0 min 0 W/m 16,7 km/h (3 Bft) 97,83 %
19.10.2016 02:10 8,2 C 8,3 C 7,2 C 96 % 4 lf 1015,2 hPa 0,0 l/m 0 min 2 min 0 W/m 20,9 km/h (4 Bft) 97,87 %
19.10.2016 02:12 8,3 C 8,3 C 7,2 C 96 % 4 lf 1015,2 hPa 0,0 l/m 0 min 0 min 0 W/m 14,6 km/h (3 Bft) 95,74 %
19.10.2016 02:14 8,3 C 8,3 C 7,2 C 96 % 3 lf 1015,2 hPa 0,0 l/m 0 min 0 min 0 W/m 16,7 km/h (3 Bft) 97,87 %
19.10.2016 02:16 8,3 C 8,3 C 7,2 C 96 % 6 lf 1015,1 hPa 0,0 l/m 0 min 2 min 0 W/m 16,7 km/h (3 Bft) 97,87 %
19.10.2016 02:18 8,3 C 8,3 C 7,2 C 96 % 4 lf 1015,2 hPa 0,0 l/m 0 min 2 min 0 W/m 16,7 km/h (3 Bft) 97,87 %
19.10.2016 02:20 8,3 C 8,3 C 7,2 C 95 % 4 lf 1015,1 hPa 0,0 l/m 0 min 0 min 0 W/m 14,6 km/h (3 Bft) 95,65 %
19.10.2016 02:22 8,3 C 8,3 C 7,2 C 96 % 3 lf 1015,1 hPa 0,0 l/m 0 min 0 min 0 W/m 18,8 km/h (3 Bft) 97,87 %
19.10.2016 02:24 8,3 C 8,3 C 7,2 C 96 % 3 lf 1015,1 hPa 0,0 l/m 0 min 0 min 0 W/m 10,5 km/h (2 Bft) 95,74 %
19.10.2016 02:26 8,3 C 8,3 C 7,2 C 96 % 3 lf 1015,1 hPa 0,0 l/m 0 min 0 min 0 W/m 23,0 km/h (4 Bft) 97,87 %
19.10.2016 02:28 8,4 C 8,3 C 7,2 C 96 % 2 lf 1015,1 hPa 0,0 l/m 0 min 0 min 0 W/m 20,9 km/h (4 Bft) 95,74 %
19.10.2016 02:30 8,4 C 8,3 C 7,2 C 95 % 3 lf 1015,1 hPa 0,0 l/m 0 min 0 min 0 W/m 23,0 km/h (4 Bft) 95,74 %
19.10.2016 02:32 8,4 C 8,3 C 7,2 C 95 % 4 lf 1015,1 hPa 0,0 l/m 0 min 2 min 0 W/m 18,8 km/h (3 Bft) 91,30 %
19.10.2016 02:34 8,4 C 8,3 C 7,2 C 95 % 4 lf 1015,1 hPa 0,0 l/m 0 min 2 min 0 W/m 18,8 km/h (3 Bft) 95,74 %
19.10.2016 02:36 8,4 C 8,3 C 7,2 C 95 % 13 lf 1015,1 hPa 0,0 l/m 0 min 2 min 0 W/m 16,7 km/h (3 Bft) 93,62 %
19.10.2016 02:38 8,4 C 8,3 C 7,2 C 95 % 15 lf 1015,2 hPa 0,0 l/m 0 min 2 min 0 W/m 20,9 km/h (4 Bft) 91,49 %
19.10.2016 02:40 8,4 C 8,3 C 7,2 C 95 % 15 lf 1015,2 hPa 0,0 l/m 0 min 2 min 0 W/m 20,9 km/h (4 Bft) 91,49 %
19.10.2016 02:42 8,5 C 8,3 C 7,2 C 95 % 15 lf 1015,3 hPa 0,0 l/m 0 min 2 min 0 W/m 18,8 km/h (3 Bft) 93,62 %
19.10.2016 02:44 8,5 C 8,3 C 7,2 C 95 % 15 lf 1015,3 hPa 0,0 l/m 0 min 2 min 0 W/m 23,0 km/h (4 Bft) 93,48 %
19.10.2016 02:46 8,5 C 8,3 C 7,2 C 95 % 15 lf 1015,4 hPa 0,0 l/m 0 min 2 min 0 W/m 20,9 km/h (4 Bft) 97,87 %
19.10.2016 02:48 8,5 C 8,3 C 7,2 C 95 % 15 lf 1015,4 hPa 0,2 l/m 0 min 2 min 0 W/m 23,0 km/h (4 Bft) 93,62 %
19.10.2016 02:50 8,6 C 8,3 C 7,2 C 95 % 15 lf 1015,5 hPa 0,0 l/m 0 min 2 min 0 W/m 29,3 km/h (5 Bft) 93,62 %
19.10.2016 02:52 8,6 C 8,3 C 7,2 C 95 % 15 lf 1015,4 hPa 0,2 l/m 0 min 2 min 0 W/m 20,9 km/h (4 Bft) 91,49 %
19.10.2016 02:54 8,6 C 7,8 C 7,2 C 95 % 15 lf 1015,4 hPa 0,0 l/m 0 min 2 min 0 W/m 27,2 km/h (4 Bft) 93,62 %
19.10.2016 02:56 8,6 C 7,8 C 7,2 C 95 % 15 lf 1015,5 hPa 0,0 l/m 0 min 2 min 0 W/m 23,0 km/h (4 Bft) 91,30 %
19.10.2016 02:58 8,6 C 7,8 C 6,7 C 95 % 15 lf 1015,6 hPa 0,2 l/m 0 min 2 min 0 W/m 29,3 km/h (5 Bft) 93,62 %
19.10.2016 03:00 8,6 C 7,8 C 6,7 C 95 % 15 lf 1015,6 hPa 0,0 l/m 0 min 2 min 0 W/m 33,5 km/h (5 Bft) 91,43 %
19.10.2016 03:02 8,5 C 7,8 C 6,7 C 95 % 15 lf 1015,5 hPa 0,2 l/m 0 min 2 min 0 W/m 29,3 km/h (5 Bft) 91,53 %
19.10.2016 03:04 8,5 C 7,8 C 6,7 C 95 % 15 lf 1015,5 hPa 0,4 l/m 0 min 2 min 0 W/m 27,2 km/h (4 Bft) 93,62 %
19.10.2016 03:06 8,4 C 7,8 C 6,7 C 95 % 15 lf 1015,4 hPa 0,0 l/m 0 min 2 min 0 W/m 23,0 km/h (4 Bft) 93,62 %
19.10.2016 03:08 8,4 C 7,8 C 6,7 C 95 % 15 lf 1015,4 hPa 0,2 l/m 0 min 2 min 0 W/m 20,9 km/h (4 Bft) 89,13 %
19.10.2016 03:10 8,4 C 7,8 C 6,7 C 95 % 15 lf 1015,4 hPa 0,2 l/m 0 min 2 min 0 W/m 16,7 km/h (3 Bft) 93,62 %
19.10.2016 03:12 8,4 C 7,8 C 6,7 C 95 % 15 lf 1015,4 hPa 0,0 l/m 0 min 2 min 0 W/m 14,6 km/h (3 Bft) 87,23 %
19.10.2016 03:14 8,4 C 7,8 C 6,7 C 95 % 15 lf 1015,4 hPa 0,0 l/m 0 min 2 min 0 W/m 10,5 km/h (2 Bft) 93,62 %
19.10.2016 03:16 8,4 C 7,8 C 6,7 C 95 % 15 lf 1015,5 hPa 0,0 l/m 0 min 2 min 0 W/m 18,8 km/h (3 Bft) 93,62 %
19.10.2016 03:18 8,3 C 7,8 C 6,7 C 95 % 15 lf 1015,4 hPa 0,0 l/m 0 min 2 min 0 W/m 20,9 km/h (4 Bft) 95,74 %
19.10.2016 03:20 8,3 C 7,8 C 6,7 C 95 % 15 lf 1015,3 hPa 0,0 l/m 0 min 2 min 0 W/m 16,7 km/h (3 Bft) 93,48 %
19.10.2016 03:22 8,3 C 7,8 C 6,7 C 95 % 15 lf 1015,3 hPa 0,0 l/m 0 min 2 min 0 W/m 18,8 km/h (3 Bft) 95,74 %
19.10.2016 03:24 8,3 C 7,8 C 6,7 C 95 % 15 lf 1015,2 hPa 0,0 l/m 0 min 2 min 0 W/m 16,7 km/h (3 Bft) 95,74 %
19.10.2016 03:26 8,3 C 7,8 C 6,7 C 95 % 15 lf 1015,2 hPa 0,2 l/m 0 min 2 min 0 W/m 14,6 km/h (3 Bft) 97,87 %
19.10.2016 03:28 8,2 C 7,8 C 6,7 C 95 % 15 lf 1015,1 hPa 0,0 l/m 0 min 2 min 0 W/m 27,2 km/h (4 Bft) 97,87 %
19.10.2016 03:30 8,2 C 7,8 C 6,7 C 95 % 15 lf 1015,1 hPa 0,0 l/m 0 min 2 min 0 W/m 20,9 km/h (4 Bft) 97,83 %
19.10.2016 03:32 8,2 C 7,8 C 6,7 C 95 % 15 lf 1015,1 hPa 0,0 l/m 0 min 2 min 0 W/m 23,0 km/h (4 Bft) 97,92 %
19.10.2016 03:34 8,2 C 7,8 C 6,7 C 95 % 15 lf 1015,1 hPa 0,0 l/m 0 min 2 min 0 W/m 20,9 km/h (4 Bft) 97,83 %
19.10.2016 03:36 8,2 C 7,8 C 6,7 C 95 % 15 lf 1015,0 hPa 0,0 l/m 0 min 2 min 0 W/m 12,6 km/h (3 Bft) 97,87 %
19.10.2016 03:38 8,2 C 7,8 C 6,7 C 95 % 15 lf 1015,0 hPa 0,2 l/m 0 min 2 min 0 W/m 16,7 km/h (3 Bft) 97,87 %
19.10.2016 03:40 8,2 C 7,8 C 6,7 C 95 % 15 lf 1015,0 hPa 0,0 l/m 0 min 2 min 0 W/m 14,6 km/h (3 Bft) 100,00 %
19.10.2016 03:42 8,2 C 7,8 C 6,7 C 95 % 15 lf 1015,1 hPa 0,0 l/m 0 min 2 min 0 W/m 14,6 km/h (3 Bft) 100,00 %
19.10.2016 03:44 8,2 C 7,8 C 6,7 C 95 % 15 lf 1015,0 hPa 0,0 l/m 0 min 2 min 0 W/m 25,1 km/h (4 Bft) 97,87 %
19.10.2016 03:46 8,2 C 7,8 C 6,7 C 95 % 15 lf 1015,0 hPa 0,0 l/m 0 min 0 min 0 W/m 16,7 km/h (3 Bft) 97,87 %
19.10.2016 03:48 8,2 C 7,8 C 6,7 C 95 % 15 lf 1015,0 hPa 0,0 l/m 0 min 0 min 0 W/m 14,6 km/h (3 Bft) 97,87 %
19.10.2016 03:50 8,2 C 7,8 C 6,7 C 95 % 15 lf 1015,0 hPa 0,0 l/m 0 min 0 min 0 W/m 18,8 km/h (3 Bft) 97,87 %
19.10.2016 03:52 8,1 C 7,8 C 6,7 C 95 % 15 lf 1015,0 hPa 0,0 l/m 0 min 0 min 0 W/m 12,6 km/h (3 Bft) 97,87 %
19.10.2016 03:54 8,1 C 7,8 C 6,7 C 95 % 15 lf 1015,0 hPa 0,0 l/m 0 min 0 min 0 W/m 18,8 km/h (3 Bft) 100,00 %
19.10.2016 03:56 8,1 C 7,8 C 6,7 C 95 % 15 lf 1014,9 hPa 0,0 l/m 0 min 0 min 0 W/m 16,7 km/h (3 Bft) 97,87 %
19.10.2016 03:58 8,1 C 7,8 C 6,7 C 95 % 15 lf 1015,0 hPa 0,0 l/m 0 min 0 min 0 W/m 12,6 km/h (3 Bft) 100,00 %
19.10.2016 04:00 8,1 C 7,8 C 6,7 C 95 % 15 lf 1015,0 hPa 0,0 l/m 0 min 0 min 0 W/m 20,9 km/h (4 Bft) 93,62 %
19.10.2016 04:02 8,1 C 7,2 C 6,7 C 95 % 15 lf 1015,0 hPa 0,0 l/m 0 min 0 min 0 W/m 14,6 km/h (3 Bft) 100,00 %
19.10.2016 04:04 8,1 C 7,2 C 6,7 C 95 % 15 lf 1015,1 hPa 0,0 l/m 0 min 0 min 0 W/m 18,8 km/h (3 Bft) 93,62 %
19.10.2016 04:06 8,0 C 7,2 C 6,1 C 95 % 15 lf 1015,1 hPa 0,0 l/m 0 min 0 min 0 W/m 23,0 km/h (4 Bft) 100,00 %
19.10.2016 04:08 7,9 C 7,2 C 6,1 C 95 % 15 lf 1015,1 hPa 0,0 l/m 0 min 0 min 0 W/m 27,2 km/h (4 Bft) 97,87 %
19.10.2016 04:10 7,9 C 7,2 C 6,1 C 95 % 15 lf 1015,1 hPa 0,0 l/m 0 min 0 min 0 W/m 25,1 km/h (4 Bft) 95,74 %
19.10.2016 04:12 7,9 C 7,2 C 6,1 C 95 % 15 lf 1015,1 hPa 0,0 l/m 0 min 0 min 0 W/m 27,2 km/h (4 Bft) 97,87 %
19.10.2016 04:14 7,8 C 7,2 C 5,6 C 95 % 15 lf 1015,1 hPa 0,0 l/m 0 min 0 min 0 W/m 20,9 km/h (4 Bft) 97,87 %
19.10.2016 04:16 7,8 C 7,2 C 5,6 C 95 % 15 lf 1015,2 hPa 0,0 l/m 0 min 0 min 0 W/m 20,9 km/h (4 Bft) 97,83 %
19.10.2016 04:18 7,7 C 7,2 C 5,6 C 95 % 15 lf 1015,1 hPa 0,0 l/m 0 min 0 min 0 W/m 18,8 km/h (3 Bft) 100,00 %
19.10.2016 04:20 7,7 C 6,7 C 5,6 C 95 % 15 lf 1015,1 hPa 0,0 l/m 0 min 0 min 0 W/m 23,0 km/h (4 Bft) 95,74 %
19.10.2016 04:22 7,6 C 6,7 C 5,6 C 95 % 15 lf 1015,0 hPa 0,0 l/m 0 min 0 min 0 W/m 20,9 km/h (4 Bft) 100,00 %
19.10.2016 04:24 7,6 C 6,7 C 5,6 C 95 % 15 lf 1015,0 hPa 0,0 l/m 0 min 0 min 0 W/m 20,9 km/h (4 Bft) 100,00 %
19.10.2016 04:26 7,5 C 6,7 C 5,6 C 95 % 15 lf 1015,0 hPa 0,0 l/m 0 min 0 min 0 W/m 14,6 km/h (3 Bft) 100,00 %
19.10.2016 04:28 7,5 C 6,7 C 5,6 C 95 % 15 lf 1015,1 hPa 0,0 l/m 0 min 0 min 0 W/m 14,6 km/h (3 Bft) 97,83 %
19.10.2016 04:30 7,4 C 6,7 C 5,0 C 95 % 15 lf 1015,0 hPa 0,0 l/m 0 min 0 min 0 W/m 12,6 km/h (3 Bft) 100,00 %
19.10.2016 04:32 7,4 C 6,7 C 5,0 C 95 % 15 lf 1015,0 hPa 0,0 l/m 0 min 0 min 0 W/m 16,7 km/h (3 Bft) 97,87 %
19.10.2016 04:34 7,3 C 6,7 C 5,0 C 95 % 15 lf 1015,0 hPa 0,0 l/m 0 min 0 min 0 W/m 18,8 km/h (3 Bft) 97,87 %
19.10.2016 04:36 7,3 C 6,7 C 5,0 C 95 % 15 lf 1015,0 hPa 0,0 l/m 0 min 0 min 0 W/m 16,7 km/h (3 Bft) 100,00 %
19.10.2016 04:38 7,3 C 6,7 C 5,0 C 95 % 15 lf 1015,0 hPa 0,0 l/m 0 min 0 min 0 W/m 16,7 km/h (3 Bft) 97,87 %
19.10.2016 04:40 7,2 C 6,7 C 5,0 C 95 % 15 lf 1014,9 hPa 0,0 l/m 0 min 0 min 0 W/m 14,6 km/h (3 Bft) 97,83 %
19.10.2016 04:42 7,2 C 6,7 C 5,0 C 95 % 15 lf 1015,0 hPa 0,0 l/m 0 min 0 min 0 W/m 20,9 km/h (4 Bft) 97,87 %
19.10.2016 04:44 7,2 C 6,7 C 5,0 C 95 % 15 lf 1015,0 hPa 0,0 l/m 0 min 0 min 0 W/m 18,8 km/h (3 Bft) 93,62 %
19.10.2016 04:46 7,1 C 6,7 C 5,0 C 95 % 15 lf 1015,0 hPa 0,0 l/m 0 min 0 min 0 W/m 16,7 km/h (3 Bft) 97,87 %
19.10.2016 04:48 7,1 C 6,7 C 5,0 C 95 % 15 lf 1015,0 hPa 0,0 l/m 0 min 0 min 0 W/m 14,6 km/h (3 Bft) 97,87 %
19.10.2016 04:50 7,1 C 6,7 C 5,0 C 95 % 15 lf 1015,0 hPa 0,0 l/m 0 min 0 min 0 W/m 18,8 km/h (3 Bft) 93,62 %
19.10.2016 04:52 7,1 C 6,1 C 5,0 C 95 % 15 lf 1014,9 hPa 0,0 l/m 0 min 0 min 0 W/m 12,6 km/h (3 Bft) 97,83 %
19.10.2016 04:54 7,0 C 6,1 C 5,0 C 95 % 15 lf 1015,0 hPa 0,0 l/m 0 min 0 min 0 W/m 10,5 km/h (2 Bft) 97,87 %
19.10.2016 04:56 7,0 C 6,1 C 5,0 C 95 % 15 lf 1014,9 hPa 0,0 l/m 0 min 0 min 0 W/m 14,6 km/h (3 Bft) 97,87 %
19.10.2016 04:58 7,0 C 6,1 C 5,0 C 95 % 15 lf 1015,0 hPa 0,0 l/m 0 min 0 min 0 W/m 14,6 km/h (3 Bft) 97,87 %
19.10.2016 05:00 6,9 C 6,1 C 5,0 C 95 % 15 lf 1015,0 hPa 0,0 l/m 0 min 0 min 0 W/m 12,6 km/h (3 Bft) 94,29 %
19.10.2016 05:02 6,9 C 6,1 C 5,0 C 95 % 15 lf 1015,0 hPa 0,0 l/m 0 min 0 min 0 W/m 12,6 km/h (3 Bft) 93,10 %
19.10.2016 05:04 6,9 C 6,1 C 5,0 C 95 % 15 lf 1014,9 hPa 0,0 l/m 0 min 0 min 0 W/m 14,6 km/h (3 Bft) 100,00 %
19.10.2016 05:06 6,9 C 6,1 C 5,0 C 95 % 15 lf 1015,0 hPa 0,0 l/m 0 min 0 min 0 W/m 12,6 km/h (3 Bft) 97,87 %
19.10.2016 05:08 6,9 C 6,1 C 5,0 C 95 % 15 lf 1014,9 hPa 0,0 l/m 0 min 0 min 0 W/m 12,6 km/h (3 Bft) 97,87 %
19.10.2016 05:10 6,9 C 6,1 C 5,0 C 95 % 15 lf 1014,9 hPa 0,0 l/m 0 min 0 min 0 W/m 14,6 km/h (3 Bft) 95,65 %
19.10.2016 05:12 6,9 C 6,7 C 5,0 C 95 % 15 lf 1014,9 hPa 0,0 l/m 0 min 0 min 0 W/m 20,9 km/h (4 Bft) 97,87 %
19.10.2016 05:14 6,9 C 6,7 C 5,0 C 95 % 15 lf 1014,9 hPa 0,0 l/m 0 min 0 min 0 W/m 20,9 km/h (4 Bft) 97,87 %
19.10.2016 05:16 6,9 C 6,7 C 5,6 C 95 % 15 lf 1014,9 hPa 0,0 l/m 0 min 0 min 0 W/m 18,8 km/h (3 Bft) 93,62 %
19.10.2016 05:18 6,9 C 6,7 C 5,6 C 95 % 15 lf 1014,9 hPa 0,0 l/m 0 min 0 min 0 W/m 12,6 km/h (3 Bft) 100,00 %
19.10.2016 05:20 6,9 C 6,7 C 5,6 C 95 % 15 lf 1014,9 hPa 0,0 l/m 0 min 0 min 0 W/m 18,8 km/h (3 Bft) 95,74 %
19.10.2016 05:22 6,9 C 6,7 C 5,6 C 95 % 15 lf 1015,0 hPa 0,0 l/m 0 min 0 min 0 W/m 16,7 km/h (3 Bft) 97,83 %
19.10.2016 05:24 7,0 C 6,7 C 5,6 C 95 % 15 lf 1014,9 hPa 0,0 l/m 0 min 0 min 0 W/m 14,6 km/h (3 Bft) 100,00 %
19.10.2016 05:26 7,0 C 6,7 C 5,6 C 95 % 15 lf 1014,9 hPa 0,0 l/m 0 min 0 min 0 W/m 14,6 km/h (3 Bft) 97,87 %
19.10.2016 05:28 7,0 C 6,7 C 5,6 C 95 % 15 lf 1014,9 hPa 0,0 l/m 0 min 0 min 0 W/m 12,6 km/h (3 Bft) 97,87 %
19.10.2016 05:30 7,0 C 6,7 C 5,6 C 96 % 15 lf 1014,9 hPa 0,0 l/m 0 min 0 min 0 W/m 16,7 km/h (3 Bft) 95,74 %
19.10.2016 05:32 7,0 C 6,7 C 5,6 C 96 % 15 lf 1014,9 hPa 0,0 l/m 0 min 0 min 0 W/m 18,8 km/h (3 Bft) 95,74 %
19.10.2016 05:34 7,0 C 6,7 C 5,6 C 96 % 15 lf 1014,8 hPa 0,0 l/m 0 min 0 min 0 W/m 18,8 km/h (3 Bft) 93,48 %
19.10.2016 05:36 7,0 C 6,7 C 5,6 C 96 % 15 lf 1014,9 hPa 0,0 l/m 0 min 0 min 0 W/m 20,9 km/h (4 Bft) 93,62 %
19.10.2016 05:38 7,1 C 6,7 C 5,6 C 96 % 15 lf 1014,9 hPa 0,0 l/m 0 min 0 min 0 W/m 16,7 km/h (3 Bft) 93,62 %
19.10.2016 05:40 7,1 C 6,7 C 5,6 C 96 % 15 lf 1014,9 hPa 0,0 l/m 0 min 0 min 0 W/m 14,6 km/h (3 Bft) 95,74 %
19.10.2016 05:42 7,1 C 6,7 C 5,6 C 96 % 15 lf 1014,9 hPa 0,0 l/m 0 min 0 min 0 W/m 14,6 km/h (3 Bft) 89,36 %
19.10.2016 05:44 7,1 C 6,7 C 5,6 C 96 % 15 lf 1014,8 hPa 0,0 l/m 0 min 0 min 0 W/m 16,7 km/h (3 Bft) 93,62 %
19.10.2016 05:46 7,1 C 6,7 C 5,6 C 96 % 15 lf 1014,8 hPa 0,0 l/m 0 min 0 min 0 W/m 18,8 km/h (3 Bft) 91,30 %
19.10.2016 05:48 7,1 C 6,7 C 5,6 C 96 % 15 lf 1014,7 hPa 0,0 l/m 0 min 0 min 0 W/m 18,8 km/h (3 Bft) 93,62 %
19.10.2016 05:50 7,1 C 6,7 C 5,6 C 96 % 15 lf 1014,7 hPa 0,0 l/m 0 min 0 min 0 W/m 18,8 km/h (3 Bft) 93,48 %
19.10.2016 05:52 7,1 C 6,7 C 5,6 C 96 % 15 lf 1014,7 hPa 0,0 l/m 0 min 0 min 0 W/m 12,6 km/h (3 Bft) 95,74 %
19.10.2016 05:54 7,1 C 6,7 C 5,6 C 96 % 15 lf 1014,5 hPa 0,0 l/m 0 min 0 min 0 W/m 16,7 km/h (3 Bft) 91,49 %
19.10.2016 05:56 7,1 C 6,7 C 5,6 C 96 % 15 lf 1014,5 hPa 0,0 l/m 0 min 0 min 0 W/m 14,6 km/h (3 Bft) 95,74 %
19.10.2016 05:58 7,1 C 6,7 C 5,6 C 96 % 15 lf 1014,5 hPa 0,0 l/m 0 min 0 min 0 W/m 16,7 km/h (3 Bft) 93,48 %
19.10.2016 06:00 7,1 C 6,7 C 5,6 C 96 % 15 lf 1014,6 hPa 0,0 l/m 0 min 0 min 0 W/m 18,8 km/h (3 Bft) 91,49 %
19.10.2016 06:02 7,1 C 6,7 C 5,6 C 96 % 15 lf 1014,6 hPa 0,0 l/m 0 min 0 min 0 W/m 16,7 km/h (3 Bft) 91,49 %
19.10.2016 06:04 7,1 C 6,7 C 5,6 C 96 % 15 lf 1014,5 hPa 0,0 l/m 0 min 0 min 0 W/m 14,6 km/h (3 Bft) 95,74 %
19.10.2016 06:06 7,1 C 6,7 C 5,6 C 96 % 15 lf 1014,5 hPa 0,0 l/m 0 min 0 min 0 W/m 16,7 km/h (3 Bft) 91,49 %
19.10.2016 06:08 7,1 C 6,7 C 5,6 C 96 % 15 lf 1014,4 hPa 0,0 l/m 0 min 0 min 0 W/m 20,9 km/h (4 Bft) 95,65 %
19.10.2016 06:10 7,1 C 6,7 C 5,6 C 96 % 15 lf 1014,4 hPa 0,0 l/m 0 min 0 min 0 W/m 18,8 km/h (3 Bft) 93,62 %
19.10.2016 06:12 7,1 C 6,7 C 5,6 C 96 % 15 lf 1014,4 hPa 0,0 l/m 0 min 0 min 0 W/m 16,7 km/h (3 Bft) 95,74 %
19.10.2016 06:14 7,1 C 6,7 C 5,6 C 96 % 15 lf 1014,4 hPa 0,0 l/m 0 min 0 min 0 W/m 12,6 km/h (3 Bft) 95,74 %
19.10.2016 06:16 7,1 C 6,7 C 5,6 C 96 % 15 lf 1014,4 hPa 0,0 l/m 0 min 0 min 0 W/m 14,6 km/h (3 Bft) 91,49 %
19.10.2016 06:18 7,1 C 6,7 C 5,6 C 96 % 15 lf 1014,4 hPa 0,0 l/m 0 min 0 min 0 W/m 23,0 km/h (4 Bft) 93,62 %
19.10.2016 06:20 7,1 C 6,7 C 5,6 C 96 % 15 lf 1014,4 hPa 0,0 l/m 0 min 0 min 0 W/m 16,7 km/h (3 Bft) 97,83 %
19.10.2016 06:22 7,1 C 6,7 C 5,6 C 96 % 15 lf 1014,4 hPa 0,0 l/m 0 min 0 min 0 W/m 14,6 km/h (3 Bft) 97,87 %
19.10.2016 06:24 7,1 C 6,7 C 5,6 C 96 % 15 lf 1014,3 hPa 0,0 l/m 0 min 0 min 0 W/m 14,6 km/h (3 Bft) 95,74 %
19.10.2016 06:26 7,1 C 6,7 C 5,6 C 96 % 15 lf 1014,3 hPa 0,0 l/m 0 min 0 min 0 W/m 18,8 km/h (3 Bft) 89,36 %
19.10.2016 06:28 7,1 C 6,7 C 5,6 C 96 % 15 lf 1014,2 hPa 0,0 l/m 0 min 0 min 0 W/m 16,7 km/h (3 Bft) 93,62 %
19.10.2016 06:30 7,2 C 6,7 C 5,6 C 96 % 15 lf 1014,2 hPa 0,0 l/m 0 min 0 min 0 W/m 20,9 km/h (4 Bft) 95,74 %
19.10.2016 06:32 7,2 C 7,2 C 5,6 C 96 % 15 lf 1014,3 hPa 0,0 l/m 0 min 0 min 0 W/m 20,9 km/h (4 Bft) 95,65 %
19.10.2016 06:34 7,2 C 7,2 C 5,6 C 96 % 15 lf 1014,3 hPa 0,0 l/m 0 min 0 min 0 W/m 18,8 km/h (3 Bft) 93,62 %
19.10.2016 06:36 7,2 C 7,2 C 5,6 C 96 % 15 lf 1014,4 hPa 0,0 l/m 0 min 0 min 0 W/m 14,6 km/h (3 Bft) 93,62 %
19.10.2016 06:38 7,2 C 7,2 C 5,6 C 96 % 15 lf 1014,3 hPa 0,0 l/m 0 min 0 min 0 W/m 16,7 km/h (3 Bft) 95,74 %
19.10.2016 06:40 7,2 C 7,2 C 5,6 C 96 % 15 lf 1014,3 hPa 0,0 l/m 0 min 0 min 0 W/m 14,6 km/h (3 Bft) 93,62 %
19.10.2016 06:42 7,2 C 7,2 C 5,6 C 96 % 15 lf 1014,3 hPa 0,0 l/m 0 min 0 min 0 W/m 20,9 km/h (4 Bft) 95,74 %
19.10.2016 06:44 7,2 C 7,2 C 5,6 C 96 % 15 lf 1014,2 hPa 0,0 l/m 0 min 0 min 0 W/m 16,7 km/h (3 Bft) 91,30 %
19.10.2016 06:46 7,2 C 7,2 C 5,6 C 96 % 15 lf 1014,3 hPa 0,0 l/m 0 min 0 min 0 W/m 16,7 km/h (3 Bft) 95,74 %
19.10.2016 06:48 7,2 C 7,2 C 5,6 C 96 % 15 lf 1014,1 hPa 0,0 l/m 0 min 0 min 0 W/m 14,6 km/h (3 Bft) 93,62 %
19.10.2016 06:50 7,2 C 7,2 C 5,6 C 96 % 15 lf 1014,1 hPa 0,0 l/m 0 min 0 min 0 W/m 20,9 km/h (4 Bft) 95,74 %
19.10.2016 06:52 7,2 C 7,2 C 5,6 C 96 % 15 lf 1014,0 hPa 0,0 l/m 0 min 0 min 0 W/m 10,5 km/h (2 Bft) 95,74 %
19.10.2016 06:54 7,2 C 7,2 C 5,6 C 96 % 15 lf 1014,0 hPa 0,0 l/m 0 min 0 min 0 W/m 23,0 km/h (4 Bft) 95,74 %
19.10.2016 06:56 7,3 C 7,2 C 5,6 C 96 % 15 lf 1014,0 hPa 0,0 l/m 0 min 0 min 0 W/m 16,7 km/h (3 Bft) 93,48 %
19.10.2016 06:58 7,3 C 7,2 C 5,6 C 96 % 15 lf 1014,0 hPa 0,0 l/m 0 min 0 min 0 W/m 18,8 km/h (3 Bft) 97,87 %
19.10.2016 07:00 7,3 C 7,2 C 6,1 C 96 % 15 lf 1014,1 hPa 0,0 l/m 0 min 0 min 0 W/m 20,9 km/h (4 Bft) 97,87 %
19.10.2016 07:02 7,3 C 7,2 C 6,1 C 96 % 15 lf 1014,0 hPa 0,0 l/m 0 min 0 min 0 W/m 16,7 km/h (3 Bft) 97,87 %
19.10.2016 07:04 7,3 C 7,2 C 6,1 C 96 % 15 lf 1014,0 hPa 0,0 l/m 0 min 0 min 0 W/m 23,0 km/h (4 Bft) 95,74 %
19.10.2016 07:06 7,3 C 7,2 C 6,1 C 96 % 15 lf 1014,0 hPa 0,0 l/m 0 min 0 min 0 W/m 18,8 km/h (3 Bft) 100,00 %
19.10.2016 07:08 7,3 C 7,2 C 6,1 C 96 % 15 lf 1013,9 hPa 0,0 l/m 0 min 0 min 0 W/m 16,7 km/h (3 Bft) 100,00 %
19.10.2016 07:10 7,3 C 7,2 C 6,1 C 96 % 15 lf 1013,9 hPa 0,0 l/m 0 min 0 min 0 W/m 20,9 km/h (4 Bft) 97,87 %
19.10.2016 07:12 7,3 C 7,2 C 6,1 C 96 % 15 lf 1013,9 hPa 0,0 l/m 0 min 0 min 0 W/m 18,8 km/h (3 Bft) 97,87 %
19.10.2016 07:14 7,3 C 7,2 C 6,1 C 96 % 15 lf 1013,9 hPa 0,0 l/m 0 min 0 min 0 W/m 14,6 km/h (3 Bft) 97,87 %
19.10.2016 07:16 7,4 C 7,2 C 6,1 C 96 % 15 lf 1013,9 hPa 0,0 l/m 0 min 0 min 0 W/m 16,7 km/h (3 Bft) 100,00 %
19.10.2016 07:18 7,4 C 7,2 C 6,1 C 96 % 15 lf 1013,9 hPa 0,0 l/m 0 min 0 min 0 W/m 16,7 km/h (3 Bft) 97,83 %
19.10.2016 07:20 7,4 C 7,2 C 6,1 C 96 % 15 lf 1013,9 hPa 0,0 l/m 0 min 0 min 0 W/m 12,6 km/h (3 Bft) 100,00 %
19.10.2016 07:22 7,4 C 7,2 C 6,1 C 96 % 15 lf 1013,9 hPa 0,0 l/m 0 min 0 min 0 W/m 16,7 km/h (3 Bft) 100,00 %
19.10.2016 07:24 7,4 C 7,2 C 6,1 C 96 % 15 lf 1013,8 hPa 0,0 l/m 0 min 0 min 0 W/m 20,9 km/h (4 Bft) 95,74 %
19.10.2016 07:26 7,4 C 7,2 C 6,1 C 96 % 15 lf 1013,9 hPa 0,0 l/m 0 min 0 min 0 W/m 16,7 km/h (3 Bft) 100,00 %
19.10.2016 07:28 7,4 C 7,2 C 6,1 C 96 % 15 lf 1013,8 hPa 0,0 l/m 0 min 0 min 0 W/m 16,7 km/h (3 Bft) 97,87 %
19.10.2016 07:30 7,4 C 7,2 C 6,1 C 96 % 15 lf 1013,8 hPa 0,0 l/m 0 min 0 min 0 W/m 29,3 km/h (5 Bft) 100,00 %
19.10.2016 07:32 7,4 C 7,2 C 6,1 C 96 % 15 lf 1013,7 hPa 0,0 l/m 0 min 0 min 0 W/m 25,1 km/h (4 Bft) 100,00 %
19.10.2016 07:34 7,4 C 7,2 C 6,1 C 96 % 15 lf 1013,7 hPa 0,0 l/m 0 min 0 min 0 W/m 18,8 km/h (3 Bft) 100,00 %
19.10.2016 07:36 7,4 C 7,2 C 6,1 C 97 % 15 lf 1013,8 hPa 0,0 l/m 0 min 0 min 0 W/m 20,9 km/h (4 Bft) 97,87 %
19.10.2016 07:38 7,5 C 7,2 C 6,1 C 97 % 15 lf 1013,7 hPa 0,0 l/m 0 min 0 min 0 W/m 16,7 km/h (3 Bft) 100,00 %
19.10.2016 07:40 7,5 C 7,2 C 6,7 C 97 % 15 lf 1013,8 hPa 0,0 l/m 0 min 0 min 0 W/m 25,1 km/h (4 Bft) 100,00 %
19.10.2016 07:42 7,5 C 7,2 C 6,7 C 97 % 15 lf 1013,8 hPa 0,0 l/m 0 min 0 min 0 W/m 16,7 km/h (3 Bft) 100,00 %
19.10.2016 07:44 7,5 C 7,2 C 6,7 C 97 % 15 lf 1013,8 hPa 0,0 l/m 0 min 0 min 0 W/m 20,9 km/h (4 Bft) 100,00 %
19.10.2016 07:46 7,6 C 7,8 C 6,7 C 97 % 15 lf 1013,8 hPa 0,0 l/m 0 min 0 min 0 W/m 18,8 km/h (3 Bft) 100,00 %
19.10.2016 07:48 7,6 C 7,8 C 6,7 C 97 % 15 lf 1013,7 hPa 0,0 l/m 0 min 2 min 0 W/m 16,7 km/h (3 Bft) 95,74 %
19.10.2016 07:50 7,6 C 7,8 C 6,7 C 97 % 15 lf 1013,7 hPa 0,0 l/m 0 min 2 min 0 W/m 20,9 km/h (4 Bft) 97,87 %
19.10.2016 07:52 7,6 C 7,8 C 6,7 C 97 % 15 lf 1013,7 hPa 0,0 l/m 0 min 0 min 0 W/m 18,8 km/h (3 Bft) 97,87 %
19.10.2016 07:54 7,6 C 7,8 C 6,7 C 97 % 15 lf 1013,6 hPa 0,0 l/m 0 min 0 min 0 W/m 18,8 km/h (3 Bft) 97,83 %
19.10.2016 07:56 7,7 C 7,8 C 6,7 C 97 % 15 lf 1013,5 hPa 0,0 l/m 0 min 0 min 0 W/m 18,8 km/h (3 Bft) 95,74 %
19.10.2016 07:58 7,7 C 7,8 C 6,7 C 97 % 15 lf 1013,4 hPa 0,0 l/m 0 min 0 min 0 W/m 18,8 km/h (3 Bft) 100,00 %
19.10.2016 08:00 7,7 C 7,8 C 6,7 C 97 % 15 lf 1013,4 hPa 0,0 l/m 0 min 0 min 0 W/m 14,6 km/h (3 Bft) 97,87 %
19.10.2016 08:02 7,7 C 7,8 C 6,7 C 97 % 15 lf 1013,4 hPa 0,0 l/m 0 min 0 min 0 W/m 23,0 km/h (4 Bft) 95,74 %
19.10.2016 08:04 7,7 C 7,8 C 6,7 C 97 % 15 lf 1013,4 hPa 0,0 l/m 0 min 0 min 0 W/m 20,9 km/h (4 Bft) 97,87 %
19.10.2016 08:06 7,7 C 7,8 C 6,7 C 97 % 15 lf 1013,5 hPa 0,0 l/m 0 min 0 min 0 W/m 20,9 km/h (4 Bft) 95,65 %
19.10.2016 08:08 7,7 C 7,8 C 6,7 C 97 % 15 lf 1013,6 hPa 0,0 l/m 0 min 0 min 0 W/m 25,1 km/h (4 Bft) 97,87 %
19.10.2016 08:10 7,8 C 7,8 C 6,7 C 97 % 15 lf 1013,5 hPa 0,0 l/m 0 min 2 min 0 W/m 18,8 km/h (3 Bft) 97,87 %
19.10.2016 08:12 7,8 C 7,8 C 6,7 C 97 % 15 lf 1013,5 hPa 0,0 l/m 0 min 2 min 0 W/m 25,1 km/h (4 Bft) 95,74 %
19.10.2016 08:14 7,8 C 7,8 C 6,7 C 97 % 15 lf 1013,6 hPa 0,0 l/m 0 min 2 min 0 W/m 25,1 km/h (4 Bft) 93,62 %
19.10.2016 08:16 7,8 C 7,8 C 6,7 C 97 % 15 lf 1013,5 hPa 0,0 l/m 0 min 2 min 0 W/m 25,1 km/h (4 Bft) 100,00 %
19.10.2016 08:18 7,9 C 7,8 C 6,7 C 97 % 15 lf 1013,4 hPa 0,0 l/m 0 min 2 min 0 W/m 27,2 km/h (4 Bft) 93,48 %
19.10.2016 08:20 7,9 C 7,8 C 6,7 C 97 % 15 lf 1013,4 hPa 0,0 l/m 0 min 0 min 0 W/m 20,9 km/h (4 Bft) 94,55 %
19.10.2016 08:22 7,9 C 7,8 C 6,7 C 97 % 15 lf 1013,3 hPa 0,0 l/m 0 min 2 min 0 W/m 23,0 km/h (4 Bft) 93,48 %
19.10.2016 08:24 7,9 C 7,8 C 6,7 C 97 % 15 lf 1013,3 hPa 0,0 l/m 0 min 0 min 0 W/m 16,7 km/h (3 Bft) 95,74 %
19.10.2016 08:26 7,9 C 7,8 C 6,7 C 97 % 15 lf 1013,2 hPa 0,0 l/m 0 min 0 min 2 W/m 23,0 km/h (4 Bft) 97,87 %
19.10.2016 08:28 7,9 C 7,8 C 6,7 C 97 % 15 lf 1013,1 hPa 0,0 l/m 0 min 0 min 7 W/m 25,1 km/h (4 Bft) 93,62 %
19.10.2016 08:30 7,9 C 7,8 C 6,7 C 97 % 15 lf 1013,1 hPa 0,0 l/m 0 min 0 min 8 W/m 20,9 km/h (4 Bft) 89,36 %
19.10.2016 08:32 7,9 C 7,8 C 6,7 C 97 % 15 lf 1013,0 hPa 0,0 l/m 0 min 2 min 9 W/m 27,2 km/h (4 Bft) 89,36 %
19.10.2016 08:34 7,9 C 7,8 C 6,7 C 97 % 15 lf 1012,9 hPa 0,0 l/m 0 min 2 min 11 W/m 27,2 km/h (4 Bft) 93,48 %
19.10.2016 08:36 8,0 C 7,8 C 6,7 C 97 % 15 lf 1012,9 hPa 0,0 l/m 0 min 2 min 11 W/m 27,2 km/h (4 Bft) 95,74 %
19.10.2016 08:38 8,0 C 7,8 C 6,7 C 97 % 15 lf 1013,0 hPa 0,0 l/m 0 min 2 min 9 W/m 20,9 km/h (4 Bft) 93,62 %
19.10.2016 08:40 8,0 C 7,8 C 6,7 C 97 % 15 lf 1013,0 hPa 0,0 l/m 0 min 2 min 7 W/m 31,4 km/h (5 Bft) 89,36 %
19.10.2016 08:42 8,0 C 7,8 C 6,7 C 97 % 15 lf 1013,0 hPa 0,0 l/m 0 min 2 min 7 W/m 20,9 km/h (4 Bft) 93,62 %
19.10.2016 08:44 8,0 C 7,8 C 6,7 C 97 % 15 lf 1013,0 hPa 0,0 l/m 0 min 2 min 5 W/m 20,9 km/h (4 Bft) 95,65 %
19.10.2016 08:46 8,0 C 7,8 C 6,7 C 97 % 15 lf 1013,0 hPa 0,0 l/m 0 min 2 min 6 W/m 27,2 km/h (4 Bft) 95,74 %
19.10.2016 08:48 8,1 C 7,8 C 6,7 C 97 % 15 lf 1012,9 hPa 0,0 l/m 0 min 2 min 7 W/m 20,9 km/h (4 Bft) 95,74 %
19.10.2016 08:50 8,1 C 7,8 C 6,7 C 97 % 15 lf 1012,9 hPa 0,0 l/m 0 min 2 min 7 W/m 23,0 km/h (4 Bft) 97,87 %
19.10.2016 08:52 8,1 C 7,8 C 6,7 C 97 % 15 lf 1012,9 hPa 0,0 l/m 0 min 2 min 7 W/m 31,4 km/h (5 Bft) 93,62 %
19.10.2016 08:54 8,1 C 7,8 C 6,7 C 97 % 15 lf 1012,9 hPa 0,0 l/m 0 min 2 min 7 W/m 29,3 km/h (5 Bft) 100,00 %
19.10.2016 08:56 8,1 C 7,8 C 6,7 C 97 % 15 lf 1012,8 hPa 0,0 l/m 0 min 2 min 7 W/m 23,0 km/h (4 Bft) 97,83 %
19.10.2016 08:58 8,1 C 7,8 C 6,7 C 97 % 15 lf 1012,9 hPa 0,2 l/m 0 min 2 min 9 W/m 23,0 km/h (4 Bft) 95,74 %
19.10.2016 09:00 8,1 C 7,8 C 6,7 C 97 % 15 lf 1012,7 hPa 0,2 l/m 0 min 2 min 7 W/m 25,1 km/h (4 Bft) 97,87 %
19.10.2016 09:02 8,1 C 7,8 C 6,7 C 97 % 15 lf 1012,7 hPa 0,0 l/m 0 min 2 min 7 W/m 25,1 km/h (4 Bft) 95,74 %
19.10.2016 09:04 8,1 C 7,8 C 6,7 C 97 % 15 lf 1012,7 hPa 0,0 l/m 0 min 2 min 7 W/m 25,1 km/h (4 Bft) 97,87 %
19.10.2016 09:06 8,1 C 7,8 C 6,7 C 97 % 15 lf 1012,7 hPa 0,0 l/m 0 min 2 min 7 W/m 20,9 km/h (4 Bft) 97,87 %
19.10.2016 09:08 8,1 C 7,8 C 6,7 C 97 % 15 lf 1012,5 hPa 0,0 l/m 0 min 2 min 7 W/m 23,0 km/h (4 Bft) 95,65 %
19.10.2016 09:10 8,1 C 7,8 C 6,7 C 97 % 15 lf 1012,5 hPa 0,0 l/m 0 min 2 min 7 W/m 23,0 km/h (4 Bft) 93,62 %
19.10.2016 09:12 8,1 C 7,8 C 6,7 C 97 % 15 lf 1012,5 hPa 0,0 l/m 0 min 2 min 9 W/m 14,6 km/h (3 Bft) 97,87 %
19.10.2016 09:14 8,2 C 7,8 C 6,7 C 97 % 15 lf 1012,5 hPa 0,0 l/m 0 min 2 min 10 W/m 18,8 km/h (3 Bft) 97,87 %
19.10.2016 09:16 8,2 C 7,8 C 6,7 C 97 % 15 lf 1012,4 hPa 0,2 l/m 0 min 2 min 11 W/m 20,9 km/h (4 Bft) 95,74 %
19.10.2016 09:18 8,2 C 7,8 C 6,7 C 96 % 15 lf 1012,3 hPa 0,0 l/m 0 min 2 min 12 W/m 18,8 km/h (3 Bft) 97,87 %
19.10.2016 09:20 8,2 C 7,8 C 6,7 C 96 % 15 lf 1012,5 hPa 0,0 l/m 0 min 2 min 12 W/m 29,3 km/h (5 Bft) 97,83 %
19.10.2016 09:22 8,2 C 7,8 C 6,7 C 96 % 15 lf 1012,3 hPa 0,0 l/m 0 min 2 min 11 W/m 23,0 km/h (4 Bft) 100,00 %
19.10.2016 09:24 8,2 C 7,8 C 6,7 C 97 % 15 lf 1012,3 hPa 0,0 l/m 0 min 2 min 11 W/m 18,8 km/h (3 Bft) 95,74 %
19.10.2016 09:26 8,2 C 7,8 C 6,7 C 97 % 15 lf 1012,5 hPa 0,0 l/m 0 min 2 min 16 W/m 37,7 km/h (5 Bft) 100,00 %
19.10.2016 09:28 8,2 C 7,8 C 6,7 C 97 % 15 lf 1012,3 hPa 0,0 l/m 0 min 2 min 27 W/m 27,2 km/h (4 Bft) 100,00 %
19.10.2016 09:30 8,2 C 8,3 C 6,7 C 97 % 15 lf 1012,4 hPa 0,0 l/m 0 min 2 min 26 W/m 35,6 km/h (5 Bft) 100,00 %
19.10.2016 09:32 8,2 C 7,8 C 6,7 C 97 % 15 lf 1012,2 hPa 0,0 l/m 0 min 2 min 23 W/m 27,2 km/h (4 Bft) 97,83 %
19.10.2016 09:34 8,3 C 7,8 C 6,7 C 97 % 15 lf 1012,3 hPa 0,0 l/m 0 min 2 min 18 W/m 31,4 km/h (5 Bft) 100,00 %
19.10.2016 09:36 8,3 C 8,3 C 7,2 C 97 % 15 lf 1012,4 hPa 0,0 l/m 0 min 2 min 23 W/m 33,5 km/h (5 Bft) 97,87 %
19.10.2016 09:38 8,3 C 8,3 C 7,2 C 97 % 15 lf 1012,2 hPa 0,0 l/m 0 min 2 min 30 W/m 39,7 km/h (6 Bft) 95,74 %
19.10.2016 09:40 8,3 C 8,3 C 7,2 C 97 % 15 lf 1012,1 hPa 0,2 l/m 0 min 2 min 29 W/m 33,5 km/h (5 Bft) 100,00 %
19.10.2016 09:42 8,3 C 8,3 C 7,2 C 97 % 15 lf 1012,2 hPa 0,0 l/m 0 min 2 min 24 W/m 41,8 km/h (6 Bft) 100,00 %
19.10.2016 09:44 8,4 C 8,3 C 7,2 C 97 % 15 lf 1012,1 hPa 0,0 l/m 0 min 2 min 29 W/m 33,5 km/h (5 Bft) 100,00 %
19.10.2016 09:46 8,4 C 8,3 C 7,2 C 96 % 15 lf 1012,1 hPa 0,0 l/m 0 min 2 min 28 W/m 29,3 km/h (5 Bft) 100,00 %
19.10.2016 09:48 8,4 C 8,3 C 7,2 C 96 % 15 lf 1012,2 hPa 0,0 l/m 0 min 2 min 26 W/m 37,7 km/h (5 Bft) 100,00 %
19.10.2016 09:50 8,4 C 8,3 C 7,2 C 96 % 15 lf 1012,1 hPa 0,0 l/m 0 min 2 min 36 W/m 33,5 km/h (5 Bft) 97,87 %
19.10.2016 09:52 8,4 C 8,3 C 7,2 C 96 % 15 lf 1012,0 hPa 0,0 l/m 0 min 2 min 40 W/m 41,8 km/h (6 Bft) 97,87 %
19.10.2016 09:54 8,4 C 8,3 C 7,2 C 96 % 15 lf 1011,9 hPa 0,0 l/m 0 min 2 min 41 W/m 29,3 km/h (5 Bft) 95,74 %
19.10.2016 09:56 8,4 C 8,3 C 7,2 C 96 % 15 lf 1012,0 hPa 0,0 l/m 0 min 2 min 39 W/m 48,1 km/h (6 Bft) 97,83 %
19.10.2016 09:58 8,5 C 8,3 C 7,2 C 96 % 15 lf 1012,0 hPa 0,0 l/m 0 min 2 min 39 W/m 39,7 km/h (6 Bft) 95,74 %
19.10.2016 10:00 8,5 C 8,3 C 7,2 C 96 % 15 lf 1012,0 hPa 0,0 l/m 0 min 2 min 35 W/m 39,7 km/h (6 Bft) 97,87 %
19.10.2016 10:02 8,6 C 8,3 C 7,2 C 96 % 15 lf 1011,9 hPa 0,0 l/m 0 min 0 min 58 W/m 33,5 km/h (5 Bft) 97,87 %
19.10.2016 10:04 8,6 C 8,3 C 7,2 C 96 % 15 lf 1011,9 hPa 0,0 l/m 0 min 0 min 83 W/m 43,9 km/h (6 Bft) 97,87 %
19.10.2016 10:06 8,6 C 8,3 C 7,2 C 96 % 15 lf 1011,9 hPa 0,0 l/m 0 min 2 min 58 W/m 31,4 km/h (5 Bft) 95,65 %
19.10.2016 10:08 8,6 C 8,3 C 7,2 C 96 % 15 lf 1011,9 hPa 0,0 l/m 0 min 2 min 44 W/m 29,3 km/h (5 Bft) 95,74 %
19.10.2016 10:10 8,7 C 8,3 C 7,2 C 96 % 15 lf 1011,8 hPa 0,0 l/m 0 min 2 min 47 W/m 37,7 km/h (5 Bft) 95,74 %
19.10.2016 10:12 8,7 C 8,3 C 7,2 C 96 % 15 lf 1011,8 hPa 0,0 l/m 0 min 2 min 48 W/m 20,9 km/h (4 Bft) 87,23 %
19.10.2016 10:14 8,7 C 8,3 C 7,2 C 96 % 15 lf 1011,8 hPa 0,0 l/m 0 min 2 min 42 W/m 35,6 km/h (5 Bft) 93,62 %
19.10.2016 10:16 8,7 C 8,3 C 7,2 C 96 % 15 lf 1011,8 hPa 0,0 l/m 0 min 2 min 46 W/m 31,4 km/h (5 Bft) 91,49 %
19.10.2016 10:18 8,7 C 8,3 C 7,2 C 96 % 15 lf 1011,8 hPa 0,0 l/m 0 min 2 min 46 W/m 39,7 km/h (6 Bft) 95,65 %
19.10.2016 10:20 8,7 C 8,3 C 7,2 C 96 % 15 lf 1011,8 hPa 0,0 l/m 0 min 2 min 36 W/m 35,6 km/h (5 Bft) 95,74 %
19.10.2016 10:22 8,7 C 8,3 C 7,2 C 96 % 15 lf 1011,8 hPa 0,0 l/m 0 min 2 min 46 W/m 33,5 km/h (5 Bft) 91,49 %
19.10.2016 10:24 8,8 C 8,3 C 7,2 C 96 % 15 lf 1011,8 hPa 0,0 l/m 0 min 2 min 54 W/m 33,5 km/h (5 Bft) 93,62 %
19.10.2016 10:26 8,8 C 8,3 C 7,2 C 96 % 15 lf 1011,8 hPa 0,0 l/m 0 min 2 min 35 W/m 41,8 km/h (6 Bft) 95,74 %
19.10.2016 10:28 8,8 C 8,3 C 7,2 C 96 % 15 lf 1011,6 hPa 0,2 l/m 0 min 2 min 44 W/m 33,5 km/h (5 Bft) 93,62 %
19.10.2016 10:30 8,8 C 8,3 C 7,8 C 96 % 15 lf 1011,6 hPa 0,0 l/m 0 min 2 min 52 W/m 31,4 km/h (5 Bft) 93,48 %
19.10.2016 10:32 8,8 C 8,3 C 7,8 C 96 % 15 lf 1011,7 hPa 0,0 l/m 0 min 2 min 48 W/m 37,7 km/h (5 Bft) 93,62 %
19.10.2016 10:34 8,8 C 8,9 C 7,8 C 96 % 15 lf 1011,7 hPa 0,0 l/m 0 min 2 min 94 W/m 43,9 km/h (6 Bft) 93,62 %
19.10.2016 10:36 8,9 C 8,9 C 7,8 C 96 % 15 lf 1011,8 hPa 0,0 l/m 0 min 2 min 114 W/m 56,5 km/h (7 Bft) 93,62 %
19.10.2016 10:38 8,9 C 8,9 C 7,8 C 96 % 15 lf 1011,6 hPa 0,0 l/m 0 min 2 min 96 W/m 33,5 km/h (5 Bft) 91,49 %
19.10.2016 10:40 8,9 C 8,9 C 7,8 C 96 % 15 lf 1011,6 hPa 0,0 l/m 0 min 2 min 62 W/m 43,9 km/h (6 Bft) 95,74 %
19.10.2016 10:42 9,0 C 8,9 C 7,8 C 96 % 15 lf 1011,6 hPa 0,0 l/m 0 min 2 min 61 W/m 37,7 km/h (5 Bft) 91,30 %
19.10.2016 10:44 9,0 C 8,9 C 7,8 C 96 % 15 lf 1011,5 hPa 0,0 l/m 0 min 2 min 49 W/m 33,5 km/h (5 Bft) 95,74 %
19.10.2016 10:46 9,0 C 8,9 C 7,8 C 96 % 15 lf 1011,5 hPa 0,0 l/m 0 min 2 min 51 W/m 31,4 km/h (5 Bft) 95,74 %
19.10.2016 10:48 9,0 C 8,9 C 7,8 C 96 % 15 lf 1011,6 hPa 0,0 l/m 0 min 2 min 70 W/m 33,5 km/h (5 Bft) 95,74 %
19.10.2016 10:50 9,1 C 8,9 C 7,8 C 96 % 15 lf 1011,6 hPa 0,0 l/m 0 min 2 min 84 W/m 27,2 km/h (4 Bft) 95,74 %
19.10.2016 10:52 9,1 C 8,9 C 7,8 C 96 % 15 lf 1011,7 hPa 0,2 l/m 0 min 2 min 70 W/m 41,8 km/h (6 Bft) 93,62 %
19.10.2016 10:54 9,1 C 8,9 C 7,8 C 96 % 15 lf 1011,5 hPa 0,0 l/m 0 min 2 min 54 W/m 48,1 km/h (6 Bft) 95,65 %
19.10.2016 10:56 9,1 C 8,9 C 7,8 C 96 % 15 lf 1011,4 hPa 0,0 l/m 0 min 2 min 47 W/m 39,7 km/h (6 Bft) 93,62 %
19.10.2016 10:58 9,1 C 8,9 C 7,8 C 96 % 15 lf 1011,5 hPa 0,0 l/m 0 min 2 min 39 W/m 43,9 km/h (6 Bft) 95,74 %
19.10.2016 11:00 9,1 C 8,9 C 7,8 C 96 % 15 lf 1011,5 hPa 0,0 l/m 0 min 2 min 48 W/m 29,3 km/h (5 Bft) 97,87 %
19.10.2016 11:02 9,1 C 8,9 C 7,8 C 96 % 15 lf 1011,5 hPa 0,0 l/m 0 min 2 min 74 W/m 41,8 km/h (6 Bft) 95,74 %
19.10.2016 11:04 9,1 C 8,9 C 7,8 C 96 % 15 lf 1011,5 hPa 0,0 l/m 0 min 2 min 61 W/m 39,7 km/h (6 Bft) 93,62 %
19.10.2016 11:06 9,2 C 8,9 C 7,8 C 96 % 15 lf 1011,5 hPa 0,0 l/m 0 min 2 min 69 W/m 46,0 km/h (6 Bft) 91,30 %
19.10.2016 11:08 9,2 C 8,9 C 7,8 C 96 % 15 lf 1011,6 hPa 0,0 l/m 0 min 2 min 42 W/m 27,2 km/h (4 Bft) 100,00 %
19.10.2016 11:10 9,2 C 8,9 C 7,8 C 96 % 15 lf 1011,6 hPa 0,0 l/m 0 min 2 min 36 W/m 31,4 km/h (5 Bft) 97,87 %
19.10.2016 11:12 9,2 C 8,9 C 7,8 C 96 % 15 lf 1011,6 hPa 0,0 l/m 0 min 2 min 48 W/m 41,8 km/h (6 Bft) 100,00 %
19.10.2016 11:14 9,2 C 8,9 C 7,8 C 96 % 15 lf 1011,5 hPa 0,0 l/m 0 min 2 min 63 W/m 43,9 km/h (6 Bft) 97,87 %
19.10.2016 11:16 9,2 C 8,9 C 7,8 C 96 % 15 lf 1011,5 hPa 0,0 l/m 0 min 0 min 66 W/m 35,6 km/h (5 Bft) 97,83 %
19.10.2016 11:18 9,2 C 8,9 C 7,8 C 96 % 15 lf 1011,5 hPa 0,0 l/m 0 min 0 min 68 W/m 43,9 km/h (6 Bft) 100,00 %
19.10.2016 11:20 9,2 C 8,9 C 7,8 C 96 % 15 lf 1011,5 hPa 0,0 l/m 0 min 0 min 64 W/m 31,4 km/h (5 Bft) 100,00 %
19.10.2016 11:22 9,2 C 9,4 C 7,8 C 96 % 15 lf 1011,4 hPa 0,0 l/m 0 min 0 min 83 W/m 31,4 km/h (5 Bft) 97,87 %
19.10.2016 11:24 9,2 C 9,4 C 8,3 C 96 % 15 lf 1011,4 hPa 0,0 l/m 0 min 0 min 124 W/m 27,2 km/h (4 Bft) 100,00 %
19.10.2016 11:26 9,3 C 9,4 C 8,3 C 96 % 15 lf 1011,4 hPa 0,0 l/m 0 min 0 min 85 W/m 33,5 km/h (5 Bft) 93,62 %
19.10.2016 11:28 9,3 C 9,4 C 8,3 C 96 % 15 lf 1011,3 hPa 0,0 l/m 0 min 2 min 91 W/m 52,3 km/h (7 Bft) 95,65 %
19.10.2016 11:30 9,3 C 9,4 C 8,3 C 96 % 15 lf 1011,3 hPa 0,0 l/m 0 min 2 min 108 W/m 37,7 km/h (5 Bft) 95,74 %
19.10.2016 11:32 9,4 C 9,4 C 8,3 C 96 % 15 lf 1011,2 hPa 0,0 l/m 0 min 2 min 74 W/m 37,7 km/h (5 Bft) 95,74 %
19.10.2016 11:34 9,4 C 9,4 C 8,3 C 96 % 15 lf 1011,1 hPa 0,0 l/m 0 min 2 min 44 W/m 35,6 km/h (5 Bft) 97,87 %
19.10.2016 11:36 9,4 C 9,4 C 8,3 C 96 % 15 lf 1011,1 hPa 0,2 l/m 0 min 2 min 51 W/m 48,1 km/h (6 Bft) 97,87 %
19.10.2016 11:38 9,4 C 9,4 C 8,3 C 96 % 15 lf 1011,1 hPa 0,0 l/m 0 min 2 min 97 W/m 33,5 km/h (5 Bft) 93,62 %
19.10.2016 11:40 9,4 C 9,4 C 8,3 C 96 % 15 lf 1010,9 hPa 0,0 l/m 0 min 2 min 147 W/m 41,8 km/h (6 Bft) 97,83 %
19.10.2016 11:42 9,4 C 9,4 C 8,3 C 96 % 15 lf 1010,9 hPa 0,0 l/m 0 min 2 min 126 W/m 35,6 km/h (5 Bft) 97,87 %
19.10.2016 11:44 9,5 C 9,4 C 8,3 C 96 % 15 lf 1010,9 hPa 0,2 l/m 0 min 2 min 101 W/m 41,8 km/h (6 Bft) 93,62 %
19.10.2016 11:46 9,5 C 9,4 C 8,3 C 96 % 15 lf 1010,9 hPa 0,0 l/m 0 min 2 min 75 W/m 48,1 km/h (6 Bft) 97,87 %
19.10.2016 11:48 9,6 C 9,4 C 8,3 C 96 % 15 lf 1010,8 hPa 0,0 l/m 0 min 2 min 73 W/m 33,5 km/h (5 Bft) 97,87 %
19.10.2016 11:50 9,6 C 9,4 C 8,3 C 96 % 15 lf 1010,6 hPa 0,0 l/m 0 min 2 min 69 W/m 39,7 km/h (6 Bft) 89,36 %
19.10.2016 11:52 9,6 C 9,4 C 8,3 C 96 % 15 lf 1010,7 hPa 0,0 l/m 0 min 2 min 73 W/m 31,4 km/h (5 Bft) 97,83 %
19.10.2016 11:54 9,6 C 9,4 C 8,3 C 96 % 15 lf 1010,7 hPa 0,0 l/m 0 min 2 min 75 W/m 46,0 km/h (6 Bft) 95,74 %
19.10.2016 11:56 9,6 C 9,4 C 8,3 C 96 % 15 lf 1010,6 hPa 0,0 l/m 0 min 2 min 82 W/m 48,1 km/h (6 Bft) 93,62 %
19.10.2016 11:58 9,6 C 9,4 C 8,3 C 96 % 15 lf 1010,6 hPa 0,2 l/m 0 min 2 min 73 W/m 43,9 km/h (6 Bft) 95,74 %
19.10.2016 12:00 9,6 C 9,4 C 8,3 C 96 % 15 lf 1010,5 hPa 0,0 l/m 0 min 2 min 78 W/m 56,5 km/h (7 Bft) 93,62 %
19.10.2016 12:02 9,6 C 9,4 C 8,3 C 96 % 15 lf 1010,6 hPa 0,0 l/m 0 min 2 min 58 W/m 46,0 km/h (6 Bft) 95,74 %
19.10.2016 12:06 9,6 C 9,4 C 8,3 C 96 % 15 lf 1010,5 hPa 0,0 l/m 0 min 2 min 78 W/m 46,0 km/h (6 Bft) 92,55 %
19.10.2016 12:08 9,7 C 9,4 C 8,3 C 96 % 15 lf 1010,5 hPa 0,0 l/m 0 min 2 min 119 W/m 37,7 km/h (5 Bft) 93,62 %
19.10.2016 12:10 9,7 C 9,4 C 8,3 C 96 % 15 lf 1010,5 hPa 0,0 l/m 0 min 2 min 117 W/m 39,7 km/h (6 Bft) 91,49 %
19.10.2016 12:12 9,7 C 9,4 C 8,9 C 96 % 15 lf 1010,5 hPa 0,0 l/m 0 min 2 min 120 W/m 37,7 km/h (5 Bft) 95,74 %
19.10.2016 12:14 9,7 C 9,4 C 8,9 C 96 % 15 lf 1010,5 hPa 0,0 l/m 0 min 2 min 138 W/m 39,7 km/h (6 Bft) 93,48 %
19.10.2016 12:16 9,8 C 10,0 C 8,9 C 96 % 15 lf 1010,4 hPa 0,0 l/m 0 min 2 min 150 W/m 39,7 km/h (6 Bft) 95,74 %
19.10.2016 12:18 9,8 C 10,0 C 8,9 C 96 % 15 lf 1010,5 hPa 0,0 l/m 0 min 2 min 184 W/m 35,6 km/h (5 Bft) 95,74 %
19.10.2016 12:20 9,8 C 10,0 C 9,4 C 96 % 15 lf 1010,4 hPa 0,0 l/m 0 min 2 min 190 W/m 31,4 km/h (5 Bft) 95,74 %
19.10.2016 12:22 9,9 C 10,0 C 8,9 C 96 % 15 lf 1010,3 hPa 0,0 l/m 0 min 2 min 145 W/m 31,4 km/h (5 Bft) 95,74 %
19.10.2016 12:24 9,9 C 10,0 C 8,9 C 96 % 15 lf 1010,3 hPa 0,0 l/m 0 min 2 min 114 W/m 43,9 km/h (6 Bft) 97,87 %
19.10.2016 12:26 9,9 C 10,0 C 8,9 C 96 % 15 lf 1010,1 hPa 0,0 l/m 0 min 2 min 96 W/m 33,5 km/h (5 Bft) 89,13 %
19.10.2016 12:28 9,9 C 9,4 C 8,9 C 96 % 15 lf 1010,2 hPa 0,2 l/m 0 min 2 min 70 W/m 35,6 km/h (5 Bft) 97,87 %
19.10.2016 12:30 9,9 C 9,4 C 8,9 C 96 % 15 lf 1010,3 hPa 0,0 l/m 0 min 2 min 69 W/m 46,0 km/h (6 Bft) 95,74 %
19.10.2016 12:32 9,9 C 9,4 C 8,9 C 96 % 15 lf 1010,3 hPa 0,0 l/m 0 min 2 min 76 W/m 37,7 km/h (5 Bft) 95,74 %
19.10.2016 12:34 9,9 C 9,4 C 8,9 C 96 % 15 lf 1010,2 hPa 0,0 l/m 0 min 2 min 81 W/m 37,7 km/h (5 Bft) 100,00 %
19.10.2016 12:36 9,9 C 10,0 C 8,9 C 96 % 15 lf 1010,1 hPa 0,0 l/m 0 min 2 min 84 W/m 37,7 km/h (5 Bft) 100,00 %
19.10.2016 12:38 9,9 C 9,4 C 8,9 C 96 % 15 lf 1010,2 hPa 0,0 l/m 0 min 2 min 83 W/m 35,6 km/h (5 Bft) 100,00 %
19.10.2016 12:40 9,9 C 9,4 C 8,9 C 96 % 15 lf 1010,1 hPa 0,0 l/m 0 min 2 min 70 W/m 46,0 km/h (6 Bft) 100,00 %
19.10.2016 12:42 9,9 C 9,4 C 8,9 C 96 % 15 lf 1010,0 hPa 0,0 l/m 0 min 2 min 66 W/m 37,7 km/h (5 Bft) 100,00 %
19.10.2016 12:44 9,9 C 9,4 C 8,9 C 96 % 15 lf 1010,0 hPa 0,0 l/m 0 min 2 min 69 W/m 39,7 km/h (6 Bft) 97,87 %
19.10.2016 12:46 9,9 C 9,4 C 8,9 C 96 % 15 lf 1010,0 hPa 0,2 l/m 0 min 2 min 67 W/m 33,5 km/h (5 Bft) 97,87 %
19.10.2016 12:48 9,9 C 9,4 C 8,9 C 96 % 15 lf 1009,9 hPa 0,2 l/m 0 min 2 min 92 W/m 41,8 km/h (6 Bft) 100,00 %
19.10.2016 12:50 9,9 C 10,0 C 8,9 C 96 % 15 lf 1009,9 hPa 0,0 l/m 0 min 2 min 95 W/m 31,4 km/h (5 Bft) 97,83 %
19.10.2016 12:52 10,0 C 10,0 C 8,9 C 96 % 15 lf 1009,9 hPa 0,0 l/m 0 min 2 min 126 W/m 41,8 km/h (6 Bft) 97,87 %
19.10.2016 12:54 10,0 C 10,0 C 8,9 C 96 % 15 lf 1009,9 hPa 0,0 l/m 0 min 2 min 131 W/m 37,7 km/h (5 Bft) 100,00 %
19.10.2016 12:56 10,0 C 10,0 C 8,9 C 96 % 15 lf 1010,0 hPa 0,0 l/m 0 min 2 min 120 W/m 43,9 km/h (6 Bft) 95,74 %
19.10.2016 12:58 10,1 C 10,0 C 8,9 C 96 % 15 lf 1009,9 hPa 0,0 l/m 0 min 2 min 84 W/m 43,9 km/h (6 Bft) 95,74 %
19.10.2016 13:00 10,1 C 10,0 C 8,9 C 96 % 15 lf 1009,9 hPa 0,0 l/m 0 min 2 min 59 W/m 31,4 km/h (5 Bft) 97,87 %
19.10.2016 13:02 10,1 C 10,0 C 8,9 C 96 % 15 lf 1009,9 hPa 0,0 l/m 0 min 2 min 51 W/m 46,0 km/h (6 Bft) 100,00 %
19.10.2016 13:04 10,1 C 10,0 C 8,9 C 96 % 15 lf 1009,8 hPa 0,0 l/m 0 min 2 min 54 W/m 43,9 km/h (6 Bft) 95,74 %
19.10.2016 13:06 10,1 C 10,0 C 8,9 C 96 % 15 lf 1009,7 hPa 0,0 l/m 0 min 2 min 45 W/m 41,8 km/h (6 Bft) 95,74 %
19.10.2016 13:08 10,1 C 10,0 C 8,9 C 96 % 15 lf 1009,8 hPa 0,0 l/m 0 min 2 min 27 W/m 33,5 km/h (5 Bft) 97,87 %
19.10.2016 13:10 10,1 C 9,4 C 8,3 C 96 % 15 lf 1009,9 hPa 0,0 l/m 0 min 2 min 20 W/m 54,4 km/h (7 Bft) 95,74 %
19.10.2016 13:12 10,0 C 9,4 C 8,3 C 96 % 15 lf 1009,8 hPa 0,0 l/m 0 min 2 min 25 W/m 35,6 km/h (5 Bft) 97,87 %
19.10.2016 13:14 10,0 C 10,0 C 8,9 C 96 % 15 lf 1009,9 hPa 0,0 l/m 0 min 2 min 48 W/m 56,5 km/h (7 Bft) 95,65 %
19.10.2016 13:16 10,1 C 10,0 C 8,9 C 96 % 15 lf 1009,9 hPa 0,0 l/m 0 min 2 min 68 W/m 48,1 km/h (6 Bft) 93,62 %
19.10.2016 13:18 10,1 C 10,0 C 8,9 C 96 % 15 lf 1010,0 hPa 0,0 l/m 0 min 2 min 60 W/m 50,2 km/h (7 Bft) 97,87 %
19.10.2016 13:20 10,1 C 10,0 C 8,9 C 96 % 15 lf 1009,9 hPa 0,0 l/m 0 min 2 min 56 W/m 52,3 km/h (7 Bft) 97,87 %
19.10.2016 13:22 10,1 C 10,0 C 8,9 C 96 % 15 lf 1009,9 hPa 0,0 l/m 0 min 2 min 77 W/m 39,7 km/h (6 Bft) 93,62 %
19.10.2016 13:24 10,1 C 10,0 C 8,9 C 96 % 15 lf 1010,0 hPa 0,2 l/m 0 min 2 min 42 W/m 83,7 km/h (9 Bft) 97,83 %
19.10.2016 13:26 10,1 C 10,0 C 8,9 C 96 % 15 lf 1009,9 hPa 0,0 l/m 0 min 2 min 47 W/m 50,2 km/h (7 Bft) 95,74 %
19.10.2016 13:28 10,1 C 10,0 C 8,9 C 96 % 15 lf 1009,9 hPa 0,0 l/m 0 min 2 min 40 W/m 60,7 km/h (7 Bft) 97,87 %
19.10.2016 13:30 10,1 C 10,0 C 8,9 C 96 % 15 lf 1009,9 hPa 0,0 l/m 0 min 2 min 38 W/m 54,4 km/h (7 Bft) 97,87 %
19.10.2016 13:32 10,2 C 10,0 C 8,9 C 96 % 15 lf 1009,9 hPa 0,0 l/m 0 min 2 min 41 W/m 35,6 km/h (5 Bft) 97,87 %
19.10.2016 13:34 10,2 C 10,0 C 8,9 C 96 % 15 lf 1009,9 hPa 0,0 l/m 0 min 2 min 22 W/m 33,5 km/h (5 Bft) 97,87 %
19.10.2016 13:36 10,2 C 10,0 C 8,9 C 96 % 15 lf 1009,9 hPa 0,0 l/m 0 min 2 min 45 W/m 33,5 km/h (5 Bft) 95,65 %
19.10.2016 13:38 10,2 C 10,0 C 8,9 C 96 % 15 lf 1009,9 hPa 0,0 l/m 0 min 2 min 68 W/m 29,3 km/h (5 Bft) 97,87 %
19.10.2016 13:40 10,2 C 10,0 C 8,9 C 96 % 15 lf 1010,0 hPa 0,0 l/m 0 min 2 min 85 W/m 35,6 km/h (5 Bft) 97,87 %
19.10.2016 13:42 10,3 C 10,6 C 8,9 C 96 % 15 lf 1009,9 hPa 0,0 l/m 0 min 2 min 73 W/m 46,0 km/h (6 Bft) 97,87 %
19.10.2016 13:44 10,3 C 10,6 C 9,4 C 96 % 15 lf 1010,0 hPa 0,0 l/m 0 min 2 min 78 W/m 37,7 km/h (5 Bft) 97,87 %
19.10.2016 13:46 10,3 C 10,6 C 9,4 C 96 % 15 lf 1010,0 hPa 0,0 l/m 0 min 2 min 104 W/m 35,6 km/h (5 Bft) 95,74 %
19.10.2016 13:48 10,4 C 10,6 C 9,4 C 96 % 15 lf 1010,0 hPa 0,0 l/m 0 min 2 min 141 W/m 35,6 km/h (5 Bft) 89,13 %
19.10.2016 13:50 10,4 C 12,2 C 9,4 C 96 % 15 lf 1009,9 hPa 0,0 l/m 0 min 2 min 156 W/m 35,6 km/h (5 Bft) 95,74 %
19.10.2016 13:52 10,5 C 13,3 C 10,0 C 96 % 15 lf 1009,9 hPa 0,0 l/m 2 min 0 min 396 W/m 31,4 km/h (5 Bft) 95,74 %
19.10.2016 13:54 10,6 C 13,9 C 10,0 C 96 % 15 lf 1009,9 hPa 0,0 l/m 2 min 2 min 515 W/m 37,7 km/h (5 Bft) 93,62 %
19.10.2016 13:56 10,7 C 13,9 C 10,6 C 96 % 15 lf 1009,9 hPa 0,0 l/m 2 min 2 min 540 W/m 37,7 km/h (5 Bft) 95,83 %
19.10.2016 13:58 10,8 C 13,9 C 10,6 C 96 % 15 lf 1009,9 hPa 0,0 l/m 2 min 0 min 547 W/m 43,9 km/h (6 Bft) 94,29 %
19.10.2016 14:00 10,9 C 13,9 C 11,1 C 96 % 15 lf 1009,9 hPa 0,0 l/m 2 min 0 min 575 W/m 37,7 km/h (5 Bft) 96,61 %
19.10.2016 14:02 11,0 C 12,8 C 11,1 C 96 % 15 lf 1009,9 hPa 0,0 l/m 2 min 0 min 354 W/m 41,8 km/h (6 Bft) 94,44 %
19.10.2016 14:04 11,1 C 13,3 C 11,1 C 96 % 15 lf 1009,9 hPa 0,0 l/m 2 min 2 min 426 W/m 37,7 km/h (5 Bft) 95,74 %
19.10.2016 14:06 11,2 C 13,9 C 11,1 C 96 % 15 lf 1009,8 hPa 0,0 l/m 2 min 0 min 501 W/m 20,9 km/h (4 Bft) 91,49 %
19.10.2016 14:08 11,3 C 13,9 C 11,1 C 96 % 15 lf 1009,9 hPa 0,0 l/m 2 min 0 min 411 W/m 27,2 km/h (4 Bft) 95,65 %
19.10.2016 14:10 11,4 C 13,3 C 11,1 C 96 % 15 lf 1009,9 hPa 0,0 l/m 0 min 0 min 157 W/m 33,5 km/h (5 Bft) 95,74 %
19.10.2016 14:12 11,4 C 12,2 C 10,6 C 96 % 15 lf 1009,8 hPa 0,0 l/m 0 min 2 min 78 W/m 29,3 km/h (5 Bft) 93,75 %
19.10.2016 14:14 11,4 C 11,7 C 10,6 C 96 % 15 lf 1010,0 hPa 0,0 l/m 0 min 2 min 37 W/m 37,7 km/h (5 Bft) 95,74 %
19.10.2016 14:16 11,4 C 11,1 C 10,0 C 96 % 15 lf 1010,4 hPa 0,0 l/m 0 min 0 min 30 W/m 46,0 km/h (6 Bft) 93,62 %
19.10.2016 14:18 11,2 C 10,6 C 10,0 C 95 % 15 lf 1010,5 hPa 0,0 l/m 0 min 0 min 64 W/m 48,1 km/h (6 Bft) 95,74 %
19.10.2016 14:20 11,0 C 10,6 C 9,4 C 95 % 15 lf 1010,5 hPa 0,0 l/m 0 min 0 min 88 W/m 37,7 km/h (5 Bft) 91,49 %
19.10.2016 14:22 10,9 C 11,1 C 9,4 C 94 % 14 lf 1010,5 hPa 0,0 l/m 0 min 0 min 112 W/m 37,7 km/h (5 Bft) 93,62 %
19.10.2016 14:24 10,7 C 11,7 C 9,4 C 93 % 14 lf 1010,7 hPa 0,0 l/m 0 min 0 min 170 W/m 33,5 km/h (5 Bft) 93,62 %
19.10.2016 14:26 10,6 C 11,7 C 9,4 C 93 % 13 lf 1010,7 hPa 0,0 l/m 0 min 0 min 167 W/m 33,5 km/h (5 Bft) 94,34 %
19.10.2016 14:28 10,6 C 12,2 C 9,4 C 92 % 10 lf 1010,8 hPa 0,0 l/m 2 min 2 min 273 W/m 48,1 km/h (6 Bft) 90,24 %
19.10.2016 14:30 10,4 C 12,8 C 10,0 C 92 % 6 lf 1010,9 hPa 0,0 l/m 2 min 0 min 297 W/m 37,7 km/h (5 Bft) 95,74 %
19.10.2016 14:32 10,4 C 12,2 C 10,0 C 91 % 4 lf 1010,9 hPa 0,0 l/m 2 min 0 min 236 W/m 37,7 km/h (5 Bft) 94,34 %
19.10.2016 14:34 10,3 C 12,8 C 10,0 C 91 % 3 lf 1011,0 hPa 0,0 l/m 2 min 0 min 273 W/m 29,3 km/h (5 Bft) 91,49 %
19.10.2016 14:36 10,3 C 12,8 C 10,0 C 91 % 2 lf 1010,9 hPa 0,0 l/m 2 min 0 min 227 W/m 25,1 km/h (4 Bft) 97,37 %
19.10.2016 14:38 10,3 C 12,2 C 9,4 C 91 % 2 lf 1011,1 hPa 0,0 l/m 0 min 0 min 163 W/m 31,4 km/h (5 Bft) 95,74 %
19.10.2016 14:40 10,3 C 13,9 C 9,4 C 90 % 1 lf 1011,1 hPa 0,0 l/m 0 min 0 min 149 W/m 25,1 km/h (4 Bft) 93,62 %
19.10.2016 14:42 10,3 C 15,0 C 9,4 C 90 % 0 lf 1011,1 hPa 0,0 l/m 2 min 0 min 464 W/m 25,1 km/h (4 Bft) 95,74 %
19.10.2016 14:44 10,3 C 14,4 C 10,0 C 90 % 0 lf 1011,2 hPa 0,0 l/m 2 min 0 min 508 W/m 39,7 km/h (6 Bft) 93,48 %
19.10.2016 14:46 10,4 C 13,9 C 10,0 C 90 % 0 lf 1011,2 hPa 0,0 l/m 2 min 0 min 329 W/m 37,7 km/h (5 Bft) 95,74 %
19.10.2016 14:48 10,4 C 13,3 C 10,0 C 89 % 0 lf 1011,2 hPa 0,0 l/m 2 min 0 min 296 W/m 35,6 km/h (5 Bft) 97,87 %
19.10.2016 14:50 10,4 C 12,2 C 10,0 C 89 % 0 lf 1011,3 hPa 0,0 l/m 0 min 0 min 213 W/m 33,5 km/h (5 Bft) 93,62 %
19.10.2016 14:52 10,3 C 11,7 C 10,0 C 89 % 0 lf 1011,3 hPa 0,0 l/m 0 min 0 min 171 W/m 37,7 km/h (5 Bft) 93,62 %
19.10.2016 14:54 10,3 C 12,2 C 9,4 C 88 % 0 lf 1011,4 hPa 0,0 l/m 0 min 0 min 165 W/m 33,5 km/h (5 Bft) 97,87 %
19.10.2016 14:56 10,2 C 11,1 C 9,4 C 88 % 0 lf 1011,5 hPa 0,0 l/m 0 min 0 min 100 W/m 37,7 km/h (5 Bft) 97,83 %
19.10.2016 14:58 10,2 C 11,1 C 8,9 C 88 % 0 lf 1011,5 hPa 0,0 l/m 0 min 0 min 111 W/m 29,3 km/h (5 Bft) 95,74 %
19.10.2016 15:00 10,1 C 10,6 C 9,4 C 87 % 0 lf 1011,5 hPa 0,0 l/m 0 min 0 min 151 W/m 37,7 km/h (5 Bft) 95,74 %
19.10.2016 15:02 10,1 C 10,6 C 9,4 C 87 % 0 lf 1011,6 hPa 0,0 l/m 0 min 0 min 183 W/m 29,3 km/h (5 Bft) 97,87 %
19.10.2016 15:04 10,0 C 11,1 C 9,4 C 87 % 0 lf 1011,8 hPa 0,0 l/m 0 min 0 min 173 W/m 25,1 km/h (4 Bft) 95,74 %
19.10.2016 15:06 10,0 C 10,6 C 9,4 C 87 % 0 lf 1011,8 hPa 0,0 l/m 0 min 0 min 123 W/m 23,0 km/h (4 Bft) 97,92 %
19.10.2016 15:08 9,9 C 10,6 C 9,4 C 87 % 0 lf 1011,8 hPa 0,0 l/m 0 min 0 min 106 W/m 27,2 km/h (4 Bft) 95,74 %
19.10.2016 15:10 9,9 C 10,6 C 9,4 C 87 % 0 lf 1011,8 hPa 0,0 l/m 0 min 0 min 119 W/m 29,3 km/h (5 Bft) 97,87 %
19.10.2016 15:12 9,9 C 10,6 C 8,9 C 88 % 0 lf 1011,8 hPa 0,0 l/m 0 min 0 min 118 W/m 35,6 km/h (5 Bft) 97,87 %
19.10.2016 15:14 9,8 C 10,6 C 8,9 C 87 % 0 lf 1011,9 hPa 0,0 l/m 0 min 0 min 104 W/m 31,4 km/h (5 Bft) 97,87 %
19.10.2016 15:16 9,8 C 10,0 C 8,9 C 87 % 0 lf 1011,9 hPa 0,0 l/m 0 min 0 min 92 W/m 33,5 km/h (5 Bft) 100,00 %
19.10.2016 15:18 9,7 C 10,0 C 8,9 C 87 % 0 lf 1011,9 hPa 0,0 l/m 0 min 0 min 87 W/m 29,3 km/h (5 Bft) 100,00 %
19.10.2016 15:20 9,7 C 10,0 C 8,9 C 87 % 0 lf 1012,0 hPa 0,0 l/m 0 min 0 min 85 W/m 27,2 km/h (4 Bft) 100,00 %
19.10.2016 15:22 9,6 C 10,0 C 8,3 C 87 % 0 lf 1012,0 hPa 0,0 l/m 0 min 0 min 87 W/m 25,1 km/h (4 Bft) 100,00 %
19.10.2016 15:24 9,6 C 10,0 C 8,3 C 87 % 0 lf 1012,0 hPa 0,0 l/m 0 min 0 min 74 W/m 27,2 km/h (4 Bft) 97,87 %
19.10.2016 15:26 9,6 C 10,0 C 8,3 C 87 % 0 lf 1012,1 hPa 0,0 l/m 0 min 0 min 70 W/m 27,2 km/h (4 Bft) 97,87 %
19.10.2016 15:28 9,5 C 10,0 C 8,3 C 87 % 0 lf 1012,1 hPa 0,0 l/m 0 min 0 min 85 W/m 25,1 km/h (4 Bft) 100,00 %
19.10.2016 15:30 9,5 C 10,0 C 8,3 C 87 % 0 lf 1012,2 hPa 0,0 l/m 0 min 0 min 108 W/m 27,2 km/h (4 Bft) 100,00 %
19.10.2016 15:32 9,4 C 10,0 C 8,3 C 87 % 0 lf 1012,2 hPa 0,0 l/m 0 min 0 min 104 W/m 35,6 km/h (5 Bft) 93,62 %
19.10.2016 15:34 9,4 C 10,0 C 8,3 C 87 % 0 lf 1012,3 hPa 0,0 l/m 0 min 0 min 103 W/m 25,1 km/h (4 Bft) 100,00 %
19.10.2016 15:36 9,4 C 10,0 C 8,9 C 87 % 0 lf 1012,3 hPa 0,0 l/m 0 min 0 min 120 W/m 16,7 km/h (3 Bft) 93,62 %
19.10.2016 15:38 9,4 C 10,0 C 8,9 C 88 % 0 lf 1012,4 hPa 0,0 l/m 0 min 0 min 95 W/m 18,8 km/h (3 Bft) 100,00 %
19.10.2016 15:40 9,4 C 10,0 C 8,3 C 88 % 0 lf 1012,4 hPa 0,0 l/m 0 min 0 min 76 W/m 31,4 km/h (5 Bft) 100,00 %
19.10.2016 15:42 9,4 C 10,0 C 8,3 C 88 % 0 lf 1012,4 hPa 0,0 l/m 0 min 0 min 93 W/m 27,2 km/h (4 Bft) 100,00 %
19.10.2016 15:44 9,4 C 10,0 C 8,3 C 87 % 0 lf 1012,4 hPa 0,0 l/m 0 min 0 min 97 W/m 20,9 km/h (4 Bft) 100,00 %
19.10.2016 15:46 9,4 C 10,0 C 8,3 C 87 % 0 lf 1012,5 hPa 0,0 l/m 0 min 0 min 85 W/m 29,3 km/h (5 Bft) 93,62 %
19.10.2016 15:48 9,3 C 10,0 C 8,3 C 87 % 0 lf 1012,5 hPa 0,0 l/m 0 min 0 min 84 W/m 25,1 km/h (4 Bft) 100,00 %
19.10.2016 15:50 9,3 C 10,0 C 8,3 C 87 % 0 lf 1012,5 hPa 0,0 l/m 0 min 0 min 90 W/m 31,4 km/h (5 Bft) 95,74 %
19.10.2016 15:52 9,3 C 10,0 C 8,3 C 87 % 0 lf 1012,5 hPa 0,0 l/m 0 min 0 min 85 W/m 23,0 km/h (4 Bft) 100,00 %
19.10.2016 15:54 9,3 C 10,0 C 8,3 C 87 % 0 lf 1012,5 hPa 0,0 l/m 0 min 0 min 79 W/m 20,9 km/h (4 Bft) 100,00 %
19.10.2016 15:56 9,3 C 10,0 C 8,3 C 87 % 0 lf 1012,5 hPa 0,0 l/m 0 min 0 min 65 W/m 23,0 km/h (4 Bft) 95,74 %
19.10.2016 15:58 9,3 C 10,0 C 8,3 C 87 % 0 lf 1012,5 hPa 0,0 l/m 0 min 0 min 61 W/m 31,4 km/h (5 Bft) 95,74 %
19.10.2016 16:00 9,3 C 10,0 C 8,3 C 87 % 0 lf 1012,5 hPa 0,0 l/m 0 min 0 min 50 W/m 25,1 km/h (4 Bft) 93,62 %
19.10.2016 16:02 9,3 C 10,0 C 8,3 C 87 % 0 lf 1012,5 hPa 0,0 l/m 0 min 0 min 48 W/m 23,0 km/h (4 Bft) 91,49 %
19.10.2016 16:04 9,3 C 10,0 C 8,3 C 87 % 0 lf 1012,6 hPa 0,0 l/m 0 min 0 min 65 W/m 18,8 km/h (3 Bft) 93,48 %
19.10.2016 16:06 9,3 C 10,0 C 8,3 C 87 % 0 lf 1012,6 hPa 0,0 l/m 0 min 0 min 60 W/m 23,0 km/h (4 Bft) 96,00 %
19.10.2016 16:08 9,3 C 10,0 C 8,3 C 87 % 0 lf 1012,6 hPa 0,0 l/m 0 min 0 min 45 W/m 18,8 km/h (3 Bft) 93,62 %
19.10.2016 16:10 9,3 C 10,0 C 8,3 C 87 % 0 lf 1012,6 hPa 0,0 l/m 0 min 0 min 46 W/m 27,2 km/h (4 Bft) 95,74 %
19.10.2016 16:12 9,3 C 9,4 C 8,3 C 87 % 0 lf 1012,6 hPa 0,0 l/m 0 min 0 min 52 W/m 25,1 km/h (4 Bft) 94,44 %
19.10.2016 16:14 9,3 C 10,0 C 8,3 C 87 % 0 lf 1012,6 hPa 0,0 l/m 0 min 0 min 62 W/m 20,9 km/h (4 Bft) 95,74 %
19.10.2016 16:16 9,3 C 10,0 C 8,3 C 87 % 0 lf 1012,7 hPa 0,0 l/m 0 min 0 min 80 W/m 20,9 km/h (4 Bft) 95,74 %
19.10.2016 16:18 9,3 C 10,0 C 8,3 C 87 % 0 lf 1012,7 hPa 0,0 l/m 0 min 0 min 84 W/m 20,9 km/h (4 Bft) 95,65 %
19.10.2016 16:20 9,3 C 10,0 C 8,3 C 87 % 0 lf 1012,7 hPa 0,0 l/m 0 min 0 min 81 W/m 14,6 km/h (3 Bft) 95,74 %
19.10.2016 16:22 9,3 C 10,0 C 8,3 C 87 % 0 lf 1012,7 hPa 0,0 l/m 0 min 0 min 71 W/m 18,8 km/h (3 Bft) 91,49 %
19.10.2016 16:24 9,3 C 10,0 C 8,9 C 87 % 0 lf 1012,7 hPa 0,0 l/m 0 min 0 min 77 W/m 20,9 km/h (4 Bft) 93,62 %
19.10.2016 16:26 9,3 C 10,0 C 8,3 C 87 % 0 lf 1012,7 hPa 0,0 l/m 0 min 0 min 68 W/m 16,7 km/h (3 Bft) 91,49 %
19.10.2016 16:28 9,4 C 10,0 C 8,3 C 87 % 0 lf 1012,8 hPa 0,0 l/m 0 min 0 min 57 W/m 16,7 km/h (3 Bft) 97,87 %
19.10.2016 16:30 9,4 C 10,0 C 8,3 C 87 % 0 lf 1012,7 hPa 0,0 l/m 0 min 0 min 54 W/m 18,8 km/h (3 Bft) 97,83 %
19.10.2016 16:32 9,4 C 10,0 C 8,3 C 87 % 0 lf 1012,8 hPa 0,0 l/m 0 min 0 min 53 W/m 16,7 km/h (3 Bft) 97,92 %
19.10.2016 16:34 9,4 C 10,0 C 8,3 C 87 % 0 lf 1012,8 hPa 0,0 l/m 0 min 0 min 58 W/m 14,6 km/h (3 Bft) 97,87 %
19.10.2016 16:36 9,4 C 10,0 C 8,3 C 87 % 0 lf 1012,8 hPa 0,0 l/m 0 min 0 min 61 W/m 14,6 km/h (3 Bft) 96,36 %
19.10.2016 16:38 9,4 C 10,0 C 8,3 C 87 % 0 lf 1012,8 hPa 0,0 l/m 0 min 0 min 58 W/m 18,8 km/h (3 Bft) 95,65 %
19.10.2016 16:40 9,4 C 10,0 C 8,3 C 87 % 0 lf 1012,8 hPa 0,0 l/m 0 min 0 min 63 W/m 16,7 km/h (3 Bft) 100,00 %
19.10.2016 16:42 9,4 C 10,0 C 8,3 C 87 % 0 lf 1012,8 hPa 0,0 l/m 0 min 0 min 67 W/m 14,6 km/h (3 Bft) 97,87 %
19.10.2016 16:44 9,4 C 10,0 C 8,3 C 87 % 0 lf 1012,8 hPa 0,0 l/m 0 min 0 min 70 W/m 14,6 km/h (3 Bft) 97,87 %
19.10.2016 16:46 9,4 C 10,0 C 8,3 C 87 % 0 lf 1012,9 hPa 0,0 l/m 0 min 0 min 66 W/m 12,6 km/h (3 Bft) 100,00 %
19.10.2016 16:48 9,4 C 10,0 C 8,3 C 87 % 0 lf 1012,9 hPa 0,0 l/m 0 min 0 min 62 W/m 12,6 km/h (3 Bft) 97,87 %
19.10.2016 16:50 9,4 C 10,0 C 8,3 C 87 % 0 lf 1012,9 hPa 0,0 l/m 0 min 0 min 55 W/m 12,6 km/h (3 Bft) 100,00 %
19.10.2016 16:52 9,4 C 10,0 C 8,3 C 88 % 0 lf 1012,9 hPa 0,0 l/m 0 min 0 min 48 W/m 16,7 km/h (3 Bft) 100,00 %
19.10.2016 16:54 9,4 C 10,0 C 8,3 C 87 % 0 lf 1012,9 hPa 0,0 l/m 0 min 0 min 45 W/m 18,8 km/h (3 Bft) 100,00 %
19.10.2016 16:56 9,4 C 10,0 C 8,3 C 87 % 0 lf 1012,9 hPa 0,0 l/m 0 min 0 min 38 W/m 6,3 km/h (2 Bft) 100,00 %
19.10.2016 16:58 9,4 C 10,0 C 8,3 C 87 % 0 lf 1013,0 hPa 0,0 l/m 0 min 0 min 33 W/m 8,4 km/h (2 Bft) 100,00 %
19.10.2016 17:00 9,4 C 10,0 C 8,3 C 87 % 0 lf 1013,0 hPa 0,0 l/m 0 min 0 min 28 W/m 16,7 km/h (3 Bft) 100,00 %
19.10.2016 17:02 9,4 C 9,4 C 8,3 C 87 % 0 lf 1013,0 hPa 0,0 l/m 0 min 0 min 26 W/m 16,7 km/h (3 Bft) 97,87 %
19.10.2016 17:04 9,4 C 9,4 C 7,8 C 87 % 0 lf 1013,0 hPa 0,0 l/m 0 min 0 min 25 W/m 12,6 km/h (3 Bft) 100,00 %
19.10.2016 17:06 9,4 C 9,4 C 7,8 C 87 % 0 lf 1013,0 hPa 0,0 l/m 0 min 0 min 21 W/m 10,5 km/h (2 Bft) 100,00 %
19.10.2016 17:08 9,4 C 9,4 C 7,8 C 87 % 0 lf 1013,1 hPa 0,0 l/m 0 min 0 min 22 W/m 10,5 km/h (2 Bft) 100,00 %
19.10.2016 17:10 9,4 C 9,4 C 7,8 C 87 % 0 lf 1013,1 hPa 0,0 l/m 0 min 0 min 26 W/m 14,6 km/h (3 Bft) 100,00 %
19.10.2016 17:12 9,4 C 9,4 C 7,8 C 88 % 0 lf 1013,1 hPa 0,0 l/m 0 min 0 min 27 W/m 16,7 km/h (3 Bft) 95,74 %
19.10.2016 17:14 9,4 C 9,4 C 7,8 C 88 % 0 lf 1013,1 hPa 0,0 l/m 0 min 0 min 30 W/m 12,6 km/h (3 Bft) 100,00 %
19.10.2016 17:16 9,4 C 9,4 C 7,8 C 88 % 0 lf 1013,1 hPa 0,0 l/m 0 min 0 min 32 W/m 12,6 km/h (3 Bft) 97,83 %
19.10.2016 17:18 9,4 C 9,4 C 7,8 C 88 % 0 lf 1013,2 hPa 0,0 l/m 0 min 0 min 32 W/m 10,5 km/h (2 Bft) 100,00 %
19.10.2016 17:20 9,4 C 9,4 C 7,8 C 88 % 0 lf 1013,2 hPa 0,0 l/m 0 min 0 min 32 W/m 8,4 km/h (2 Bft) 97,92 %
19.10.2016 17:22 9,4 C 9,4 C 7,8 C 88 % 0 lf 1013,2 hPa 0,0 l/m 0 min 0 min 33 W/m 10,5 km/h (2 Bft) 100,00 %
19.10.2016 17:24 9,4 C 9,4 C 7,8 C 88 % 0 lf 1013,2 hPa 0,0 l/m 0 min 0 min 33 W/m 12,6 km/h (3 Bft) 97,83 %
19.10.2016 17:26 9,4 C 9,4 C 7,8 C 88 % 0 lf 1013,2 hPa 0,0 l/m 0 min 0 min 33 W/m 4,2 km/h (1 Bft) 97,87 %
19.10.2016 17:28 9,4 C 9,4 C 7,8 C 88 % 0 lf 1013,3 hPa 0,0 l/m 0 min 0 min 35 W/m 8,4 km/h (2 Bft) 93,62 %
19.10.2016 17:30 9,4 C 9,4 C 8,3 C 88 % 0 lf 1013,3 hPa 0,0 l/m 0 min 0 min 35 W/m 12,6 km/h (3 Bft) 95,74 %
19.10.2016 17:32 9,4 C 9,4 C 8,3 C 88 % 0 lf 1013,3 hPa 0,0 l/m 0 min 0 min 37 W/m 10,5 km/h (2 Bft) 97,92 %
19.10.2016 17:34 9,3 C 9,4 C 8,3 C 88 % 0 lf 1013,3 hPa 0,0 l/m 0 min 0 min 37 W/m 12,6 km/h (3 Bft) 95,74 %
19.10.2016 17:36 9,3 C 9,4 C 8,3 C 88 % 0 lf 1013,3 hPa 0,0 l/m 0 min 0 min 37 W/m 8,4 km/h (2 Bft) 94,87 %
19.10.2016 17:38 9,3 C 9,4 C 8,3 C 88 % 0 lf 1013,3 hPa 0,0 l/m 0 min 0 min 35 W/m 12,6 km/h (3 Bft) 93,48 %
19.10.2016 17:40 9,3 C 9,4 C 8,3 C 88 % 0 lf 1013,4 hPa 0,0 l/m 0 min 0 min 30 W/m 10,5 km/h (2 Bft) 95,74 %
19.10.2016 17:42 9,3 C 9,4 C 8,3 C 88 % 0 lf 1013,4 hPa 0,0 l/m 0 min 0 min 27 W/m 12,6 km/h (3 Bft) 95,74 %
19.10.2016 17:44 9,3 C 9,4 C 7,8 C 88 % 0 lf 1013,5 hPa 0,0 l/m 0 min 0 min 26 W/m 6,3 km/h (2 Bft) 95,74 %
19.10.2016 17:46 9,3 C 9,4 C 7,8 C 88 % 0 lf 1013,5 hPa 0,0 l/m 0 min 0 min 26 W/m 6,3 km/h (2 Bft) 93,62 %
19.10.2016 17:48 9,3 C 9,4 C 7,8 C 88 % 0 lf 1013,5 hPa 0,0 l/m 0 min 0 min 25 W/m 6,3 km/h (2 Bft) 93,62 %
19.10.2016 17:50 9,3 C 9,4 C 7,8 C 88 % 0 lf 1013,5 hPa 0,0 l/m 0 min 0 min 23 W/m 12,6 km/h (3 Bft) 91,30 %
19.10.2016 17:52 9,3 C 9,4 C 7,8 C 88 % 0 lf 1013,5 hPa 0,0 l/m 0 min 0 min 20 W/m 10,5 km/h (2 Bft) 91,49 %
19.10.2016 17:54 9,3 C 9,4 C 7,8 C 88 % 0 lf 1013,5 hPa 0,0 l/m 0 min 0 min 19 W/m 6,3 km/h (2 Bft) 91,49 %
19.10.2016 17:56 9,3 C 9,4 C 7,8 C 88 % 0 lf 1013,5 hPa 0,0 l/m 0 min 0 min 16 W/m 8,4 km/h (2 Bft) 93,62 %
19.10.2016 17:58 9,3 C 9,4 C 7,8 C 88 % 0 lf 1013,5 hPa 0,0 l/m 0 min 0 min 15 W/m 10,5 km/h (2 Bft) 93,62 %
19.10.2016 18:00 9,3 C 9,4 C 7,8 C 88 % 0 lf 1013,5 hPa 0,0 l/m 0 min 0 min 14 W/m 6,3 km/h (2 Bft) 91,49 %
19.10.2016 18:02 9,3 C 9,4 C 7,8 C 88 % 0 lf 1013,6 hPa 0,0 l/m 0 min 0 min 14 W/m 8,4 km/h (2 Bft) 91,30 %
19.10.2016 18:06 9,3 C 9,4 C 7,8 C 88 % 0 lf 1013,6 hPa 0,0 l/m 0 min 0 min 12 W/m 8,4 km/h (2 Bft) 93,62 %
19.10.2016 18:08 9,3 C 9,4 C 7,8 C 88 % 0 lf 1013,6 hPa 0,0 l/m 0 min 0 min 11 W/m 4,2 km/h (1 Bft) 91,49 %
19.10.2016 18:10 9,3 C 9,4 C 7,8 C 88 % 0 lf 1013,6 hPa 0,0 l/m 0 min 0 min 11 W/m 6,3 km/h (2 Bft) 89,36 %
19.10.2016 18:12 9,3 C 9,4 C 7,8 C 88 % 0 lf 1013,6 hPa 0,0 l/m 0 min 0 min 10 W/m 4,2 km/h (1 Bft) 90,38 %
19.10.2016 18:14 9,3 C 9,4 C 7,8 C 88 % 0 lf 1013,7 hPa 0,0 l/m 0 min 0 min 9 W/m 2,1 km/h (1 Bft) 93,62 %
19.10.2016 18:16 9,3 C 8,9 C 7,8 C 88 % 0 lf 1013,6 hPa 0,0 l/m 0 min 0 min 8 W/m 6,3 km/h (2 Bft) 91,49 %
19.10.2016 18:18 9,3 C 8,9 C 7,8 C 88 % 0 lf 1013,7 hPa 0,0 l/m 0 min 0 min 7 W/m 4,2 km/h (1 Bft) 97,87 %
19.10.2016 18:20 9,3 C 8,9 C 7,8 C 88 % 0 lf 1013,7 hPa 0,0 l/m 0 min 0 min 5 W/m 6,3 km/h (2 Bft) 91,49 %
19.10.2016 18:22 9,2 C 8,9 C 7,8 C 88 % 0 lf 1013,7 hPa 0,0 l/m 0 min 0 min 5 W/m 6,3 km/h (2 Bft) 95,74 %
19.10.2016 18:24 9,2 C 8,9 C 7,8 C 89 % 0 lf 1013,7 hPa 0,0 l/m 0 min 0 min 5 W/m 6,3 km/h (2 Bft) 97,83 %
19.10.2016 18:26 9,2 C 8,9 C 7,8 C 89 % 0 lf 1013,7 hPa 0,0 l/m 0 min 0 min 0 W/m 4,2 km/h (1 Bft) 93,62 %
19.10.2016 18:28 9,2 C 8,9 C 7,2 C 89 % 0 lf 1013,7 hPa 0,0 l/m 0 min 0 min 0 W/m 4,2 km/h (1 Bft) 93,62 %
19.10.2016 18:30 9,2 C 8,9 C 7,2 C 89 % 0 lf 1013,7 hPa 0,0 l/m 0 min 0 min 0 W/m 4,2 km/h (1 Bft) 97,87 %
19.10.2016 18:32 9,2 C 8,9 C 7,2 C 89 % 0 lf 1013,8 hPa 0,0 l/m 0 min 0 min 0 W/m 0,0 km/h (0 Bft) 95,83 %
19.10.2016 18:34 9,2 C 8,9 C 7,2 C 89 % 0 lf 1013,8 hPa 0,0 l/m 0 min 0 min 0 W/m 6,3 km/h (2 Bft) 95,65 %
19.10.2016 18:36 9,2 C 8,9 C 7,2 C 89 % 0 lf 1013,8 hPa 0,0 l/m 0 min 0 min 0 W/m 2,1 km/h (1 Bft) 89,74 %
19.10.2016 18:38 9,2 C 8,9 C 7,2 C 89 % 0 lf 1013,9 hPa 0,0 l/m 0 min 0 min 0 W/m 4,2 km/h (1 Bft) 93,48 %
19.10.2016 18:40 9,2 C 8,9 C 7,2 C 89 % 0 lf 1013,9 hPa 0,0 l/m 0 min 0 min 0 W/m 4,2 km/h (1 Bft) 95,74 %
19.10.2016 18:42 9,2 C 8,9 C 7,2 C 88 % 0 lf 1013,9 hPa 0,0 l/m 0 min 0 min 0 W/m 4,2 km/h (1 Bft) 95,83 %
19.10.2016 18:44 9,2 C 8,9 C 7,2 C 89 % 0 lf 1013,9 hPa 0,0 l/m 0 min 0 min 0 W/m 2,1 km/h (1 Bft) 97,87 %
19.10.2016 18:46 9,2 C 8,9 C 7,2 C 89 % 0 lf 1013,9 hPa 0,0 l/m 0 min 0 min 0 W/m 4,2 km/h (1 Bft) 97,87 %
19.10.2016 18:48 9,1 C 8,9 C 7,2 C 89 % 0 lf 1013,9 hPa 0,0 l/m 0 min 0 min 0 W/m 2,1 km/h (1 Bft) 97,83 %
19.10.2016 18:50 9,1 C 8,9 C 7,2 C 89 % 0 lf 1013,9 hPa 0,0 l/m 0 min 0 min 0 W/m 0,0 km/h (0 Bft) 93,75 %
19.10.2016 18:52 9,1 C 8,9 C 7,2 C 89 % 0 lf 1013,9 hPa 0,0 l/m 0 min 0 min 0 W/m 0,0 km/h (0 Bft) 96,23 %
19.10.2016 18:54 9,1 C 8,9 C 7,2 C 89 % 0 lf 1013,9 hPa 0,0 l/m 0 min 0 min 0 W/m 0,0 km/h (0 Bft) 93,62 %
19.10.2016 18:56 9,1 C 8,9 C 7,2 C 89 % 0 lf 1013,9 hPa 0,0 l/m 0 min 0 min 0 W/m 0,0 km/h (0 Bft) 95,74 %
19.10.2016 18:58 9,1 C 8,3 C 7,2 C 89 % 0 lf 1013,9 hPa 0,0 l/m 0 min 0 min 0 W/m 0,0 km/h (0 Bft) 95,74 %
19.10.2016 19:00 9,1 C 8,3 C 7,2 C 89 % 0 lf 1014,0 hPa 0,0 l/m 0 min 0 min 0 W/m 0,0 km/h (0 Bft) 95,65 %
19.10.2016 19:02 9,1 C 8,3 C 7,2 C 89 % 0 lf 1014,0 hPa 0,0 l/m 0 min 0 min 0 W/m 0,0 km/h (0 Bft) 95,83 %
19.10.2016 19:04 9,1 C 8,3 C 7,2 C 89 % 0 lf 1014,0 hPa 0,0 l/m 0 min 0 min 0 W/m 4,2 km/h (1 Bft) 97,87 %
19.10.2016 19:06 9,0 C 8,3 C 7,2 C 89 % 0 lf 1014,0 hPa 0,0 l/m 0 min 0 min 0 W/m 4,2 km/h (1 Bft) 97,37 %
19.10.2016 19:08 9,0 C 8,3 C 7,2 C 89 % 0 lf 1014,0 hPa 0,0 l/m 0 min 0 min 0 W/m 4,2 km/h (1 Bft) 97,87 %
19.10.2016 19:10 9,0 C 8,3 C 7,2 C 89 % 0 lf 1014,0 hPa 0,0 l/m 0 min 0 min 0 W/m 4,2 km/h (1 Bft) 95,74 %
19.10.2016 19:12 9,0 C 8,3 C 7,2 C 89 % 0 lf 1014,0 hPa 0,0 l/m 0 min 0 min 0 W/m 4,2 km/h (1 Bft) 97,83 %
19.10.2016 19:14 9,0 C 8,3 C 7,2 C 89 % 0 lf 1014,1 hPa 0,0 l/m 0 min 0 min 0 W/m 4,2 km/h (1 Bft) 95,74 %
19.10.2016 19:16 9,0 C 8,3 C 7,2 C 89 % 0 lf 1014,1 hPa 0,0 l/m 0 min 0 min 0 W/m 6,3 km/h (2 Bft) 97,87 %
19.10.2016 19:18 9,0 C 8,3 C 7,2 C 89 % 0 lf 1014,1 hPa 0,0 l/m 0 min 0 min 0 W/m 4,2 km/h (1 Bft) 97,87 %
19.10.2016 19:20 8,9 C 8,3 C 7,2 C 89 % 0 lf 1014,1 hPa 0,0 l/m 0 min 0 min 0 W/m 4,2 km/h (1 Bft) 97,87 %
19.10.2016 19:22 8,9 C 8,3 C 7,2 C 89 % 0 lf 1014,0 hPa 0,0 l/m 0 min 0 min 0 W/m 4,2 km/h (1 Bft) 100,00 %
19.10.2016 19:24 8,9 C 8,3 C 7,2 C 90 % 0 lf 1014,1 hPa 0,0 l/m 0 min 0 min 0 W/m 6,3 km/h (2 Bft) 93,48 %
19.10.2016 19:26 8,9 C 8,3 C 7,2 C 90 % 0 lf 1014,1 hPa 0,0 l/m 0 min 0 min 0 W/m 4,2 km/h (1 Bft) 97,87 %
19.10.2016 19:28 8,9 C 8,3 C 7,2 C 90 % 0 lf 1014,1 hPa 0,0 l/m 0 min 0 min 0 W/m 4,2 km/h (1 Bft) 97,87 %
19.10.2016 19:30 8,9 C 8,3 C 7,2 C 89 % 0 lf 1014,1 hPa 0,0 l/m 0 min 0 min 0 W/m 4,2 km/h (1 Bft) 100,00 %
19.10.2016 19:32 8,9 C 8,3 C 7,2 C 90 % 0 lf 1014,1 hPa 0,0 l/m 0 min 0 min 0 W/m 4,2 km/h (1 Bft) 100,00 %
19.10.2016 19:34 8,9 C 8,3 C 7,2 C 90 % 0 lf 1014,1 hPa 0,0 l/m 0 min 0 min 0 W/m 6,3 km/h (2 Bft) 97,87 %
19.10.2016 19:36 8,9 C 8,3 C 7,2 C 90 % 0 lf 1014,1 hPa 0,0 l/m 0 min 0 min 0 W/m 6,3 km/h (2 Bft) 97,83 %
19.10.2016 19:38 8,9 C 8,3 C 7,2 C 90 % 0 lf 1014,1 hPa 0,0 l/m 0 min 0 min 0 W/m 4,2 km/h (1 Bft) 97,87 %
19.10.2016 19:40 8,8 C 8,3 C 7,2 C 90 % 0 lf 1014,1 hPa 0,0 l/m 0 min 0 min 0 W/m 6,3 km/h (2 Bft) 98,11 %
19.10.2016 19:42 8,8 C 8,3 C 7,2 C 90 % 0 lf 1014,1 hPa 0,0 l/m 0 min 0 min 0 W/m 6,3 km/h (2 Bft) 97,87 %
19.10.2016 19:44 8,8 C 8,3 C 7,2 C 90 % 0 lf 1014,1 hPa 0,0 l/m 0 min 0 min 0 W/m 4,2 km/h (1 Bft) 93,62 %
19.10.2016 19:46 8,8 C 8,3 C 7,2 C 90 % 0 lf 1014,1 hPa 0,0 l/m 0 min 0 min 0 W/m 4,2 km/h (1 Bft) 97,83 %
19.10.2016 19:48 8,8 C 8,3 C 7,2 C 90 % 0 lf 1014,1 hPa 0,0 l/m 0 min 0 min 0 W/m 4,2 km/h (1 Bft) 97,87 %
19.10.2016 19:50 8,8 C 8,3 C 7,2 C 90 % 0 lf 1014,1 hPa 0,0 l/m 0 min 0 min 0 W/m 4,2 km/h (1 Bft) 97,87 %
19.10.2016 19:52 8,8 C 8,3 C 7,2 C 90 % 0 lf 1014,2 hPa 0,0 l/m 0 min 0 min 0 W/m 4,2 km/h (1 Bft) 95,74 %
19.10.2016 19:54 8,8 C 8,3 C 7,2 C 90 % 0 lf 1014,2 hPa 0,0 l/m 0 min 0 min 0 W/m 6,3 km/h (2 Bft) 95,74 %
19.10.2016 19:56 8,8 C 8,3 C 7,2 C 90 % 0 lf 1014,2 hPa 0,0 l/m 0 min 0 min 0 W/m 4,2 km/h (1 Bft) 97,87 %
19.10.2016 19:58 8,7 C 8,3 C 7,2 C 90 % 0 lf 1014,1 hPa 0,0 l/m 0 min 0 min 0 W/m 4,2 km/h (1 Bft) 97,83 %
19.10.2016 20:00 8,7 C 8,3 C 7,2 C 91 % 0 lf 1014,2 hPa 0,0 l/m 0 min 0 min 0 W/m 4,2 km/h (1 Bft) 100,00 %
19.10.2016 20:02 8,7 C 8,3 C 7,2 C 90 % 0 lf 1014,2 hPa 0,0 l/m 0 min 0 min 0 W/m 4,2 km/h (1 Bft) 91,84 %
19.10.2016 20:04 8,7 C 8,3 C 7,2 C 90 % 0 lf 1014,2 hPa 0,0 l/m 0 min 0 min 0 W/m 4,2 km/h (1 Bft) 97,87 %
19.10.2016 20:06 8,7 C 8,3 C 7,2 C 90 % 0 lf 1014,2 hPa 0,0 l/m 0 min 0 min 0 W/m 4,2 km/h (1 Bft) 94,74 %
19.10.2016 20:08 8,7 C 8,3 C 7,2 C 90 % 0 lf 1014,2 hPa 0,0 l/m 0 min 0 min 0 W/m 4,2 km/h (1 Bft) 100,00 %
19.10.2016 20:10 8,7 C 8,3 C 7,2 C 90 % 0 lf 1014,2 hPa 0,0 l/m 0 min 0 min 0 W/m 4,2 km/h (1 Bft) 97,83 %
19.10.2016 20:12 8,7 C 8,3 C 7,2 C 91 % 0 lf 1014,2 hPa 0,0 l/m 0 min 0 min 0 W/m 4,2 km/h (1 Bft) 100,00 %
19.10.2016 20:14 8,7 C 8,3 C 7,2 C 91 % 0 lf 1014,2 hPa 0,0 l/m 0 min 0 min 0 W/m 6,3 km/h (2 Bft) 100,00 %
19.10.2016 20:16 8,7 C 8,3 C 6,7 C 91 % 0 lf 1014,2 hPa 0,0 l/m 0 min 0 min 0 W/m 4,2 km/h (1 Bft) 100,00 %
19.10.2016 20:18 8,7 C 8,3 C 6,7 C 91 % 0 lf 1014,3 hPa 0,0 l/m 0 min 0 min 0 W/m 0,0 km/h (0 Bft) 100,00 %
19.10.2016 20:20 8,7 C 7,8 C 6,7 C 91 % 0 lf 1014,3 hPa 0,0 l/m 0 min 0 min 0 W/m 4,2 km/h (1 Bft) 93,75 %
19.10.2016 20:22 8,7 C 7,8 C 6,7 C 91 % 0 lf 1014,2 hPa 0,0 l/m 0 min 0 min 0 W/m 6,3 km/h (2 Bft) 97,83 %
19.10.2016 20:24 8,7 C 7,8 C 6,7 C 91 % 0 lf 1014,3 hPa 0,0 l/m 0 min 0 min 0 W/m 4,2 km/h (1 Bft) 97,87 %
19.10.2016 20:26 8,6 C 7,8 C 6,1 C 91 % 0 lf 1014,2 hPa 0,0 l/m 0 min 0 min 0 W/m 6,3 km/h (2 Bft) 100,00 %
19.10.2016 20:28 8,6 C 7,8 C 6,1 C 91 % 0 lf 1014,2 hPa 0,0 l/m 0 min 0 min 0 W/m 4,2 km/h (1 Bft) 97,87 %
19.10.2016 20:30 8,6 C 7,2 C 6,1 C 91 % 0 lf 1014,2 hPa 0,0 l/m 0 min 0 min 0 W/m 4,2 km/h (1 Bft) 97,87 %
19.10.2016 20:32 8,6 C 7,2 C 5,6 C 91 % 1 lf 1014,2 hPa 0,0 l/m 0 min 0 min 0 W/m 6,3 km/h (2 Bft) 98,11 %
19.10.2016 20:34 8,6 C 7,2 C 5,6 C 91 % 1 lf 1014,2 hPa 0,0 l/m 0 min 0 min 0 W/m 4,2 km/h (1 Bft) 93,62 %
19.10.2016 20:36 8,5 C 7,2 C 5,6 C 91 % 1 lf 1014,1 hPa 0,0 l/m 0 min 0 min 0 W/m 4,2 km/h (1 Bft) 94,74 %
19.10.2016 20:38 8,5 C 6,7 C 5,6 C 91 % 1 lf 1014,1 hPa 0,0 l/m 0 min 0 min 0 W/m 4,2 km/h (1 Bft) 95,74 %
19.10.2016 20:40 8,4 C 6,7 C 5,0 C 91 % 1 lf 1014,1 hPa 0,0 l/m 0 min 0 min 0 W/m 4,2 km/h (1 Bft) 95,74 %
19.10.2016 20:42 8,4 C 6,7 C 5,0 C 91 % 1 lf 1014,1 hPa 0,0 l/m 0 min 0 min 0 W/m 4,2 km/h (1 Bft) 97,87 %
19.10.2016 20:44 8,4 C 6,7 C 5,0 C 90 % 1 lf 1014,0 hPa 0,0 l/m 0 min 0 min 0 W/m 6,3 km/h (2 Bft) 95,74 %
19.10.2016 20:46 8,3 C 6,7 C 5,0 C 90 % 1 lf 1014,1 hPa 0,0 l/m 0 min 0 min 0 W/m 6,3 km/h (2 Bft) 97,83 %
19.10.2016 20:48 8,3 C 6,7 C 5,0 C 90 % 1 lf 1014,1 hPa 0,0 l/m 0 min 0 min 0 W/m 8,4 km/h (2 Bft) 97,96 %
19.10.2016 20:50 8,3 C 6,7 C 5,0 C 90 % 1 lf 1014,0 hPa 0,0 l/m 0 min 0 min 0 W/m 10,5 km/h (2 Bft) 95,74 %
19.10.2016 20:52 8,2 C 6,7 C 5,0 C 90 % 1 lf 1014,0 hPa 0,0 l/m 0 min 0 min 0 W/m 6,3 km/h (2 Bft) 95,74 %
19.10.2016 20:54 8,2 C 6,7 C 5,0 C 90 % 2 lf 1013,9 hPa 0,0 l/m 0 min 0 min 0 W/m 4,2 km/h (1 Bft) 91,49 %
19.10.2016 20:56 8,2 C 6,1 C 5,0 C 90 % 2 lf 1013,9 hPa 0,0 l/m 0 min 0 min 0 W/m 6,3 km/h (2 Bft) 97,87 %
19.10.2016 20:58 8,1 C 6,7 C 5,0 C 90 % 2 lf 1013,9 hPa 0,0 l/m 0 min 0 min 0 W/m 8,4 km/h (2 Bft) 93,48 %
19.10.2016 21:00 8,1 C 6,1 C 5,0 C 90 % 2 lf 1013,8 hPa 0,0 l/m 0 min 0 min 0 W/m 6,3 km/h (2 Bft) 93,62 %
19.10.2016 21:02 8,1 C 6,7 C 5,0 C 90 % 2 lf 1013,8 hPa 0,0 l/m 0 min 0 min 0 W/m 6,3 km/h (2 Bft) 95,74 %
19.10.2016 21:04 8,0 C 6,1 C 5,0 C 90 % 2 lf 1013,8 hPa 0,0 l/m 0 min 0 min 0 W/m 6,3 km/h (2 Bft) 97,87 %
19.10.2016 21:06 7,9 C 6,1 C 4,4 C 90 % 2 lf 1013,8 hPa 0,0 l/m 0 min 0 min 0 W/m 6,3 km/h (2 Bft) 95,74 %
19.10.2016 21:08 7,9 C 6,1 C 4,4 C 90 % 2 lf 1013,8 hPa 0,0 l/m 0 min 0 min 0 W/m 6,3 km/h (2 Bft) 93,48 %
19.10.2016 21:10 7,9 C 6,1 C 4,4 C 90 % 2 lf 1013,9 hPa 0,0 l/m 0 min 0 min 0 W/m 6,3 km/h (2 Bft) 93,62 %
19.10.2016 21:12 7,8 C 6,1 C 4,4 C 90 % 2 lf 1013,8 hPa 0,0 l/m 0 min 0 min 0 W/m 4,2 km/h (1 Bft) 93,62 %
19.10.2016 21:14 7,8 C 6,1 C 4,4 C 90 % 3 lf 1013,9 hPa 0,0 l/m 0 min 0 min 0 W/m 8,4 km/h (2 Bft) 95,74 %
19.10.2016 21:16 7,7 C 6,1 C 4,4 C 90 % 3 lf 1013,9 hPa 0,0 l/m 0 min 0 min 0 W/m 8,4 km/h (2 Bft) 92,45 %
19.10.2016 21:18 7,7 C 6,1 C 4,4 C 90 % 3 lf 1013,9 hPa 0,0 l/m 0 min 0 min 0 W/m 8,4 km/h (2 Bft) 95,74 %
19.10.2016 21:20 7,7 C 6,1 C 4,4 C 90 % 3 lf 1013,9 hPa 0,0 l/m 0 min 0 min 0 W/m 6,3 km/h (2 Bft) 93,48 %
19.10.2016 21:22 7,6 C 6,1 C 4,4 C 90 % 3 lf 1014,0 hPa 0,0 l/m 0 min 0 min 0 W/m 6,3 km/h (2 Bft) 95,74 %
19.10.2016 21:24 7,6 C 6,1 C 4,4 C 90 % 3 lf 1014,1 hPa 0,0 l/m 0 min 0 min 0 W/m 8,4 km/h (2 Bft) 95,74 %
19.10.2016 21:26 7,5 C 6,1 C 4,4 C 90 % 3 lf 1014,0 hPa 0,0 l/m 0 min 0 min 0 W/m 6,3 km/h (2 Bft) 93,62 %
19.10.2016 21:28 7,5 C 6,1 C 4,4 C 90 % 3 lf 1014,0 hPa 0,0 l/m 0 min 0 min 0 W/m 8,4 km/h (2 Bft) 93,62 %
19.10.2016 21:30 7,4 C 6,1 C 4,4 C 90 % 3 lf 1014,0 hPa 0,0 l/m 0 min 0 min 0 W/m 6,3 km/h (2 Bft) 93,48 %
19.10.2016 21:32 7,4 C 6,1 C 4,4 C 90 % 3 lf 1014,0 hPa 0,0 l/m 0 min 0 min 0 W/m 6,3 km/h (2 Bft) 91,49 %
19.10.2016 21:34 7,4 C 6,1 C 4,4 C 90 % 4 lf 1014,1 hPa 0,0 l/m 0 min 0 min 0 W/m 6,3 km/h (2 Bft) 93,62 %
19.10.2016 21:36 7,3 C 6,1 C 4,4 C 90 % 4 lf 1014,1 hPa 0,0 l/m 0 min 0 min 0 W/m 6,3 km/h (2 Bft) 94,00 %
19.10.2016 21:38 7,3 C 6,1 C 4,4 C 90 % 4 lf 1014,0 hPa 0,0 l/m 0 min 0 min 0 W/m 10,5 km/h (2 Bft) 94,29 %
19.10.2016 21:40 7,3 C 6,1 C 4,4 C 90 % 4 lf 1014,0 hPa 0,0 l/m 0 min 0 min 0 W/m 6,3 km/h (2 Bft) 97,87 %
19.10.2016 21:42 7,2 C 6,1 C 4,4 C 90 % 4 lf 1014,1 hPa 0,0 l/m 0 min 0 min 0 W/m 6,3 km/h (2 Bft) 94,83 %
19.10.2016 21:44 7,2 C 6,1 C 4,4 C 90 % 4 lf 1014,1 hPa 0,0 l/m 0 min 0 min 0 W/m 8,4 km/h (2 Bft) 95,74 %
19.10.2016 21:46 7,2 C 6,1 C 4,4 C 90 % 4 lf 1014,1 hPa 0,0 l/m 0 min 0 min 0 W/m 6,3 km/h (2 Bft) 95,74 %
19.10.2016 21:48 7,1 C 5,6 C 4,4 C 90 % 5 lf 1014,2 hPa 0,0 l/m 0 min 0 min 0 W/m 8,4 km/h (2 Bft) 93,62 %
19.10.2016 21:50 7,1 C 5,6 C 4,4 C 90 % 5 lf 1014,2 hPa 0,0 l/m 0 min 0 min 0 W/m 8,4 km/h (2 Bft) 97,14 %
19.10.2016 21:52 7,1 C 5,6 C 4,4 C 90 % 6 lf 1014,1 hPa 0,0 l/m 0 min 0 min 0 W/m 4,2 km/h (1 Bft) 94,92 %
19.10.2016 21:54 7,1 C 5,6 C 4,4 C 90 % 6 lf 1014,1 hPa 0,0 l/m 0 min 0 min 0 W/m 6,3 km/h (2 Bft) 97,14 %
19.10.2016 21:56 7,0 C 5,6 C 4,4 C 90 % 7 lf 1014,1 hPa 0,0 l/m 0 min 0 min 0 W/m 6,3 km/h (2 Bft) 98,28 %
19.10.2016 21:58 6,9 C 5,6 C 4,4 C 91 % 7 lf 1014,1 hPa 0,0 l/m 0 min 0 min 0 W/m 6,3 km/h (2 Bft) 94,29 %
19.10.2016 22:00 6,9 C 5,6 C 4,4 C 91 % 7 lf 1014,1 hPa 0,0 l/m 0 min 0 min 0 W/m 8,4 km/h (2 Bft) 96,61 %
19.10.2016 22:02 6,9 C 6,1 C 4,4 C 91 % 7 lf 1014,2 hPa 0,0 l/m 0 min 0 min 0 W/m 8,4 km/h (2 Bft) 97,87 %
19.10.2016 22:04 6,9 C 6,1 C 4,4 C 91 % 8 lf 1014,1 hPa 0,0 l/m 0 min 0 min 0 W/m 6,3 km/h (2 Bft) 97,83 %
19.10.2016 22:06 6,9 C 6,1 C 4,4 C 90 % 8 lf 1014,2 hPa 0,0 l/m 0 min 0 min 0 W/m 6,3 km/h (2 Bft) 97,44 %
19.10.2016 22:08 6,8 C 6,1 C 4,4 C 91 % 8 lf 1014,2 hPa 0,0 l/m 0 min 0 min 0 W/m 8,4 km/h (2 Bft) 91,30 %
19.10.2016 22:10 6,8 C 6,1 C 4,4 C 91 % 9 lf 1014,1 hPa 0,0 l/m 0 min 0 min 0 W/m 6,3 km/h (2 Bft) 97,87 %
19.10.2016 22:12 6,8 C 6,1 C 4,4 C 91 % 9 lf 1014,1 hPa 0,0 l/m 0 min 0 min 0 W/m 4,2 km/h (1 Bft) 97,87 %
19.10.2016 22:14 6,8 C 6,1 C 4,4 C 91 % 9 lf 1014,2 hPa 0,0 l/m 0 min 0 min 0 W/m 6,3 km/h (2 Bft) 97,87 %
19.10.2016 22:16 6,8 C 6,1 C 4,4 C 91 % 9 lf 1014,2 hPa 0,0 l/m 0 min 0 min 0 W/m 4,2 km/h (1 Bft) 95,74 %
19.10.2016 22:18 6,7 C 6,1 C 4,4 C 91 % 9 lf 1014,1 hPa 0,0 l/m 0 min 0 min 0 W/m 4,2 km/h (1 Bft) 95,65 %
19.10.2016 22:20 6,7 C 6,1 C 4,4 C 91 % 10 lf 1014,0 hPa 0,0 l/m 0 min 0 min 0 W/m 6,3 km/h (2 Bft) 93,62 %
19.10.2016 22:22 6,7 C 6,1 C 4,4 C 91 % 10 lf 1014,1 hPa 0,0 l/m 0 min 0 min 0 W/m 8,4 km/h (2 Bft) 95,74 %
19.10.2016 22:24 6,7 C 6,1 C 4,4 C 91 % 10 lf 1014,1 hPa 0,0 l/m 0 min 0 min 0 W/m 8,4 km/h (2 Bft) 97,87 %
19.10.2016 22:26 6,7 C 6,1 C 4,4 C 91 % 10 lf 1014,2 hPa 0,0 l/m 0 min 0 min 0 W/m 6,3 km/h (2 Bft) 97,87 %
19.10.2016 22:28 6,7 C 6,1 C 4,4 C 91 % 10 lf 1014,1 hPa 0,0 l/m 0 min 0 min 0 W/m 8,4 km/h (2 Bft) 95,74 %
19.10.2016 22:30 6,6 C 6,1 C 4,4 C 91 % 10 lf 1014,1 hPa 0,0 l/m 0 min 0 min 0 W/m 4,2 km/h (1 Bft) 95,65 %
19.10.2016 22:32 6,6 C 6,1 C 5,0 C 91 % 10 lf 1014,1 hPa 0,0 l/m 0 min 0 min 0 W/m 4,2 km/h (1 Bft) 97,87 %
19.10.2016 22:34 6,6 C 6,1 C 5,0 C 91 % 10 lf 1014,1 hPa 0,0 l/m 0 min 0 min 0 W/m 6,3 km/h (2 Bft) 95,74 %
19.10.2016 22:36 6,6 C 6,1 C 5,0 C 91 % 11 lf 1014,1 hPa 0,0 l/m 0 min 0 min 0 W/m 4,2 km/h (1 Bft) 96,30 %
19.10.2016 22:38 6,6 C 6,1 C 5,0 C 91 % 10 lf 1014,1 hPa 0,0 l/m 0 min 0 min 0 W/m 6,3 km/h (2 Bft) 97,87 %
19.10.2016 22:40 6,6 C 6,1 C 5,0 C 92 % 11 lf 1014,1 hPa 0,0 l/m 0 min 0 min 0 W/m 4,2 km/h (1 Bft) 97,83 %
19.10.2016 22:42 6,6 C 6,1 C 4,4 C 92 % 11 lf 1014,1 hPa 0,0 l/m 0 min 0 min 0 W/m 4,2 km/h (1 Bft) 95,74 %
19.10.2016 22:44 6,6 C 6,1 C 4,4 C 92 % 11 lf 1014,1 hPa 0,0 l/m 0 min 0 min 0 W/m 6,3 km/h (2 Bft) 97,87 %
19.10.2016 22:46 6,6 C 6,1 C 4,4 C 92 % 11 lf 1014,1 hPa 0,0 l/m 0 min 0 min 0 W/m 4,2 km/h (1 Bft) 97,87 %
19.10.2016 22:48 6,6 C 6,1 C 4,4 C 92 % 12 lf 1014,1 hPa 0,0 l/m 0 min 0 min 0 W/m 4,2 km/h (1 Bft) 97,87 %
19.10.2016 22:50 6,6 C 6,1 C 4,4 C 92 % 11 lf 1014,2 hPa 0,0 l/m 0 min 0 min 0 W/m 6,3 km/h (2 Bft) 95,74 %
19.10.2016 22:52 6,5 C 6,1 C 4,4 C 92 % 11 lf 1014,2 hPa 0,0 l/m 0 min 0 min 0 W/m 4,2 km/h (1 Bft) 95,65 %
19.10.2016 22:54 6,5 C 6,1 C 4,4 C 92 % 12 lf 1014,2 hPa 0,0 l/m 0 min 0 min 0 W/m 4,2 km/h (1 Bft) 97,87 %
19.10.2016 22:56 6,5 C 6,1 C 4,4 C 92 % 12 lf 1014,2 hPa 0,0 l/m 0 min 0 min 0 W/m 2,1 km/h (1 Bft) 95,74 %
19.10.2016 22:58 6,5 C 6,1 C 4,4 C 92 % 12 lf 1014,1 hPa 0,0 l/m 0 min 0 min 0 W/m 6,3 km/h (2 Bft) 95,74 %
19.10.2016 23:00 6,5 C 6,1 C 5,0 C 92 % 12 lf 1014,1 hPa 0,0 l/m 0 min 0 min 0 W/m 8,4 km/h (2 Bft) 95,74 %
19.10.2016 23:02 6,5 C 6,1 C 4,4 C 92 % 12 lf 1014,2 hPa 0,0 l/m 0 min 0 min 0 W/m 4,2 km/h (1 Bft) 95,83 %
19.10.2016 23:04 6,5 C 6,1 C 5,0 C 92 % 12 lf 1014,2 hPa 0,0 l/m 0 min 0 min 0 W/m 4,2 km/h (1 Bft) 95,65 %
19.10.2016 23:06 6,4 C 6,1 C 5,0 C 92 % 12 lf 1014,1 hPa 0,0 l/m 0 min 0 min 0 W/m 6,3 km/h (2 Bft) 97,44 %
19.10.2016 23:08 6,4 C 6,1 C 5,0 C 92 % 12 lf 1014,1 hPa 0,0 l/m 0 min 0 min 0 W/m 6,3 km/h (2 Bft) 95,74 %
19.10.2016 23:10 6,5 C 6,1 C 5,0 C 92 % 12 lf 1014,1 hPa 0,0 l/m 0 min 0 min 0 W/m 6,3 km/h (2 Bft) 91,49 %
19.10.2016 23:12 6,4 C 6,1 C 5,0 C 92 % 12 lf 1014,1 hPa 0,0 l/m 0 min 0 min 0 W/m 6,3 km/h (2 Bft) 95,74 %
19.10.2016 23:14 6,4 C 6,1 C 5,0 C 92 % 12 lf 1014,1 hPa 0,0 l/m 0 min 0 min 0 W/m 4,2 km/h (1 Bft) 93,62 %
19.10.2016 23:16 6,4 C 6,1 C 5,0 C 92 % 12 lf 1014,1 hPa 0,0 l/m 0 min 0 min 0 W/m 6,3 km/h (2 Bft) 89,36 %
19.10.2016 23:18 6,4 C 6,1 C 5,0 C 92 % 12 lf 1014,0 hPa 0,0 l/m 0 min 0 min 0 W/m 6,3 km/h (2 Bft) 95,65 %
19.10.2016 23:20 6,4 C 6,1 C 5,0 C 93 % 12 lf 1014,1 hPa 0,0 l/m 0 min 0 min 0 W/m 8,4 km/h (2 Bft) 95,74 %
19.10.2016 23:22 6,4 C 6,1 C 5,0 C 93 % 12 lf 1014,0 hPa 0,0 l/m 0 min 0 min 0 W/m 6,3 km/h (2 Bft) 97,87 %
19.10.2016 23:24 6,5 C 6,1 C 5,0 C 93 % 12 lf 1014,0 hPa 0,0 l/m 0 min 0 min 0 W/m 8,4 km/h (2 Bft) 97,87 %
19.10.2016 23:26 6,5 C 6,7 C 5,0 C 93 % 12 lf 1014,0 hPa 0,0 l/m 0 min 0 min 0 W/m 6,3 km/h (2 Bft) 95,74 %
19.10.2016 23:28 6,5 C 6,7 C 5,0 C 93 % 12 lf 1014,0 hPa 0,0 l/m 0 min 0 min 0 W/m 8,4 km/h (2 Bft) 91,49 %
19.10.2016 23:30 6,6 C 6,7 C 5,0 C 93 % 12 lf 1014,1 hPa 0,0 l/m 0 min 0 min 0 W/m 8,4 km/h (2 Bft) 97,83 %
19.10.2016 23:32 6,6 C 6,7 C 5,0 C 93 % 12 lf 1014,1 hPa 0,0 l/m 0 min 0 min 0 W/m 8,4 km/h (2 Bft) 100,00 %
19.10.2016 23:34 6,6 C 6,7 C 5,0 C 93 % 11 lf 1014,1 hPa 0,0 l/m 0 min 0 min 0 W/m 6,3 km/h (2 Bft) 97,87 %
19.10.2016 23:36 6,6 C 6,7 C 5,0 C 93 % 11 lf 1014,1 hPa 0,0 l/m 0 min 0 min 0 W/m 4,2 km/h (1 Bft) 93,62 %
19.10.2016 23:38 6,6 C 6,1 C 5,0 C 93 % 11 lf 1014,2 hPa 0,0 l/m 0 min 0 min 0 W/m 4,2 km/h (1 Bft) 93,62 %
19.10.2016 23:40 6,6 C 6,1 C 5,0 C 93 % 11 lf 1014,3 hPa 0,0 l/m 0 min 0 min 0 W/m 6,3 km/h (2 Bft) 93,48 %
19.10.2016 23:42 6,6 C 6,1 C 5,0 C 93 % 10 lf 1014,3 hPa 0,0 l/m 0 min 0 min 0 W/m 4,2 km/h (1 Bft) 93,62 %
19.10.2016 23:44 6,6 C 6,1 C 5,0 C 94 % 10 lf 1014,2 hPa 0,0 l/m 0 min 0 min 0 W/m 6,3 km/h (2 Bft) 95,74 %
19.10.2016 23:46 6,6 C 6,7 C 5,0 C 94 % 10 lf 1014,2 hPa 0,0 l/m 0 min 0 min 0 W/m 6,3 km/h (2 Bft) 95,74 %
19.10.2016 23:48 6,6 C 6,1 C 5,0 C 94 % 10 lf 1014,2 hPa 0,0 l/m 0 min 0 min 0 W/m 4,2 km/h (1 Bft) 95,74 %
19.10.2016 23:50 6,6 C 6,1 C 5,0 C 94 % 10 lf 1014,3 hPa 0,0 l/m 0 min 0 min 0 W/m 4,2 km/h (1 Bft) 95,74 %
19.10.2016 23:52 6,6 C 6,1 C 5,0 C 94 % 9 lf 1014,4 hPa 0,0 l/m 0 min 0 min 0 W/m 0,0 km/h (0 Bft) 93,48 %
19.10.2016 23:54 6,6 C 6,7 C 5,6 C 94 % 9 lf 1014,4 hPa 0,0 l/m 0 min 0 min 0 W/m 0,0 km/h (0 Bft) 93,62 %
19.10.2016 23:56 6,6 C 6,7 C 5,6 C 94 % 9 lf 1014,3 hPa 0,0 l/m 0 min 0 min 0 W/m 0,0 km/h (0 Bft) 93,62 %
19.10.2016 23:58 6,6 C 6,7 C 5,6 C 94 % 9 lf 1014,3 hPa 0,0 l/m 0 min 0 min 0 W/m 10,5 km/h (2 Bft) 95,74 %
_ Min-Zeit 23:06 21:48 21:06 15:00 14:42 13:06 - - - - 18:32 03:12
Minimum _ 6,4 C 5,6 C 4,4 C 87 % 0 lf 1009,7 hPa - - - - 0,0 km/h (0 Bft) 87,23 %
_ Max-Zeit 14:10 14:42 14:00 07:36 00:00 00:00 03:04 13:52 02:10 14:00 13:24 00:20
Maximum _ 11,4 C 15,0 C 11,1 C 97 % 15 lf 1016,7 hPa 0,4 l/m 2 min 2 min 575 W/m 83,7 km/h
SW (9 Bft)
100,00 %
Durchschnitt _ 8,5 C 8,3 C 7,0 C 93 % 10 lf 1013,4 hPa #4,6 l/m #36 min. #6:50 h 81 W/m 19,8 km/h (4 Bft) 96,20 %
© 2016 W. Hausmann